Time,TemperatureF,DewpointF,PressureIn,WindDirection,WindDirectionDegrees,WindSpeedMPH,WindSpeedGustMPH,Humidity,HourlyPrecipIn,Conditions,Clouds,dailyrainin,SolarRadiationWatts/m^2,SoftwareType,DateUTC
2013-01-23 00:00:00,63.0,56.7,30.21,NNW,331,2.0,4.0,80,0.00,,OVC,0.00,0.00,VWS V14.01,2013-01-23 05:00:00,
2013-01-23 00:01:00,63.0,56.7,30.21,NNW,331,3.0,3.0,80,0.00,,OVC,0.00,0.00,VWS V14.01,2013-01-23 05:01:00,
2013-01-23 00:03:00,63.1,56.8,30.21,NNW,330,3.0,4.0,80,0.00,,OVC,0.00,0.00,VWS V14.01,2013-01-23 05:03:00,
2013-01-23 00:04:00,63.1,56.8,30.21,NNW,330,2.0,4.0,80,0.00,,OVC,0.00,0.00,VWS V14.01,2013-01-23 05:04:00,
2013-01-23 00:05:00,63.1,56.8,30.21,NW,324,3.0,4.0,80,0.00,,OVC050,0.00,0.00,VWS V14.01,2013-01-23 05:05:00,
2013-01-23 00:09:00,63.3,57.0,30.21,NW,324,2.0,2.0,80,0.00,,OVC,0.00,0.00,VWS V14.01,2013-01-23 05:09:00,
2013-01-23 00:10:00,63.4,57.1,30.21,NNW,342,2.0,4.0,80,0.00,,OVC050,0.00,0.00,VWS V14.01,2013-01-23 05:10:00,
2013-01-23 00:14:00,63.4,57.1,30.20,NNW,336,0.0,2.0,80,0.00,,OVC,0.00,0.00,VWS V14.01,2013-01-23 05:14:00,
2013-01-23 00:15:00,63.4,57.1,30.21,NNW,336,2.0,2.0,80,0.00,,OVC050,0.00,0.00,VWS V14.01,2013-01-23 05:15:00,
2013-01-23 00:19:00,63.4,57.1,30.21,NNW,336,1.0,4.0,80,0.00,,OVC,0.00,0.00,VWS V14.01,2013-01-23 05:19:00,
2013-01-23 00:20:00,63.3,57.0,30.21,NW,319,2.0,4.0,80,0.00,,OVC050,0.00,0.00,VWS V14.01,2013-01-23 05:20:00,
2013-01-23 00:24:00,63.2,57.3,30.22,NW,324,2.0,4.0,81,0.00,,OVC,0.00,0.00,VWS V14.01,2013-01-23 05:24:00,
2013-01-23 00:25:00,63.2,57.3,30.22,NNW,329,4.0,5.0,81,0.00,,OVC050,0.00,0.00,VWS V14.01,2013-01-23 05:25:00,
2013-01-23 00:29:00,63.1,57.2,30.22,NNW,337,1.0,4.0,81,0.00,,OVC,0.00,0.00,VWS V14.01,2013-01-23 05:29:00,
2013-01-23 00:30:00,63.1,57.2,30.22,NW,324,3.0,5.0,81,0.00,,OVC050,0.00,0.00,VWS V14.01,2013-01-23 05:30:00,
2013-01-23 00:34:00,63.0,57.4,30.21,NNW,331,3.0,4.0,82,0.00,,OVC,0.00,0.00,VWS V14.01,2013-01-23 05:34:00,
2013-01-23 00:35:00,63.0,57.4,30.21,NNW,331,2.0,3.0,82,0.00,,OVC050,0.00,0.00,VWS V14.01,2013-01-23 05:35:00,
2013-01-23 00:39:00,62.9,57.3,30.22,NNW,333,1.0,3.0,82,0.00,,OVC,0.00,0.00,VWS V14.01,2013-01-23 05:39:00,
2013-01-23 00:40:00,62.9,57.3,30.22,NNW,333,1.0,3.0,82,0.00,,OVC050,0.00,0.00,VWS V14.01,2013-01-23 05:40:00,
2013-01-23 00:44:00,62.9,57.3,30.22,NNW,335,1.0,3.0,82,0.00,,OVC,0.00,0.00,VWS V14.01,2013-01-23 05:44:00,
2013-01-23 00:45:00,62.9,57.3,30.22,NNW,346,2.0,4.0,82,0.00,,OVC050,0.00,0.00,VWS V14.01,2013-01-23 05:45:00,
2013-01-23 00:49:00,62.9,57.3,30.21,NNW,342,3.0,4.0,82,0.00,,OVC,0.00,0.00,VWS V14.01,2013-01-23 05:49:00,
2013-01-23 00:50:00,62.9,57.3,30.21,NNW,343,1.0,4.0,82,0.00,,OVC050,0.00,0.00,VWS V14.01,2013-01-23 05:50:00,
2013-01-23 00:54:00,62.9,57.3,30.21,NNW,346,1.0,3.0,82,0.00,,OVC,0.00,0.00,VWS V14.01,2013-01-23 05:54:00,
2013-01-23 00:55:00,62.9,57.3,30.21,NNW,346,3.0,3.0,82,0.00,,OVC050,0.00,0.00,VWS V14.01,2013-01-23 05:55:00,
2013-01-23 00:59:00,62.8,57.2,30.21,NNW,346,2.0,5.0,82,0.00,,OVC,0.00,0.00,VWS V14.01,2013-01-23 05:59:00,
2013-01-23 01:00:00,62.8,57.2,30.21,NNW,345,4.0,4.0,82,0.00,,OVC050,0.00,0.00,VWS V14.01,2013-01-23 06:00:00,
2013-01-23 01:03:00,63.0,57.1,30.21,NNW,345,2.0,3.0,81,0.00,,OVC,0.00,0.00,VWS V14.01,2013-01-23 06:03:00,
2013-01-23 01:05:00,63.0,57.1,30.21,NNW,346,0.0,2.0,81,0.00,,OVC050,0.00,0.00,VWS V14.01,2013-01-23 06:05:00,
2013-01-23 01:09:00,63.0,57.1,30.21,NNW,342,1.0,4.0,81,0.00,,OVC,0.00,0.00,VWS V14.01,2013-01-23 06:09:00,
2013-01-23 01:10:00,63.1,57.2,30.21,NNW,342,0.0,2.0,81,0.00,,OVC050,0.00,0.00,VWS V14.01,2013-01-23 06:10:00,
2013-01-23 01:14:00,63.3,56.7,30.21,North,9,0.0,3.0,79,0.00,,OVC,0.00,0.00,VWS V14.01,2013-01-23 06:14:00,
2013-01-23 01:15:00,63.4,56.8,30.21,North,9,0.0,1.0,79,0.00,,OVC050,0.00,0.00,VWS V14.01,2013-01-23 06:15:00,
2013-01-23 01:18:00,64.0,55.9,30.21,NE,49,9.0,10.0,75,0.00,,OVC,0.00,0.00,VWS V14.01,2013-01-23 06:18:00,
2013-01-23 01:20:00,64.2,55.8,30.21,NE,54,3.0,9.0,74,0.00,,OVC050,0.00,0.00,VWS V14.01,2013-01-23 06:20:00,
2013-01-23 01:23:00,65.3,55.7,30.21,NE,50,5.0,8.0,71,0.00,,OVC,0.00,0.00,VWS V14.01,2013-01-23 06:23:00,
2013-01-23 01:25:00,65.5,55.9,30.21,NNE,32,2.0,5.0,71,0.00,,OVC050,0.00,0.00,VWS V14.01,2013-01-23 06:25:00,
2013-01-23 01:28:00,66.2,55.3,30.21,East,82,5.0,7.0,68,0.00,,OVC,0.00,0.00,VWS V14.01,2013-01-23 06:28:00,
2013-01-23 01:30:00,66.4,55.5,30.21,ENE,60,4.0,5.0,68,0.00,,OVC050,0.00,0.00,VWS V14.01,2013-01-23 06:30:00,
2013-01-23 01:33:00,66.9,55.6,30.21,NNE,32,8.0,8.0,67,0.00,,OVC,0.00,0.00,VWS V14.01,2013-01-23 06:33:00,
2013-01-23 01:35:00,67.0,55.3,30.21,NE,46,3.0,10.0,66,0.00,,OVC050,0.00,0.00,VWS V14.01,2013-01-23 06:35:00,
2013-01-23 01:38:00,67.3,55.2,30.21,ENE,63,4.0,12.0,65,0.00,,OVC,0.00,0.00,VWS V14.01,2013-01-23 06:38:00,
2013-01-23 01:40:00,67.4,55.2,30.21,NE,34,2.0,6.0,65,0.00,,OVC050,0.00,0.00,VWS V14.01,2013-01-23 06:40:00,
2013-01-23 01:43:00,67.6,55.0,30.20,NE,46,1.0,5.0,64,0.00,,OVC,0.00,0.00,VWS V14.01,2013-01-23 06:43:00,
2013-01-23 01:45:00,67.6,55.0,30.20,ENE,61,4.0,4.0,64,0.00,,OVC050,0.00,0.00,VWS V14.01,2013-01-23 06:45:00,
2013-01-23 01:48:00,67.7,54.7,30.21,NE,44,2.0,5.0,63,0.00,,OVC,0.00,0.00,VWS V14.01,2013-01-23 06:48:00,
2013-01-23 01:50:00,67.8,54.8,30.20,NE,45,5.0,8.0,63,0.00,,OVC050,0.00,0.00,VWS V14.01,2013-01-23 06:50:00,
2013-01-23 01:53:00,67.8,54.8,30.20,NE,46,3.0,4.0,63,0.00,,OVC,0.00,0.00,VWS V14.01,2013-01-23 06:53:00,
2013-01-23 01:55:00,67.9,54.8,30.21,NE,56,2.0,4.0,63,0.00,,OVC050,0.00,0.00,VWS V14.01,2013-01-23 06:55:00,
2013-01-23 01:58:00,67.9,54.8,30.20,NE,38,3.0,6.0,63,0.00,,OVC,0.00,0.00,VWS V14.01,2013-01-23 06:58:00,
2013-01-23 02:00:00,67.9,54.8,30.20,ENE,63,5.0,5.0,63,0.00,,OVC050,0.00,0.00,VWS V14.01,2013-01-23 07:00:00,
2013-01-23 02:03:00,68.0,55.0,30.20,East,80,8.0,8.0,63,0.00,,OVC,0.00,0.00,VWS V14.01,2013-01-23 07:03:00,
2013-01-23 02:05:00,68.0,55.0,30.20,NE,38,2.0,8.0,63,0.00,,OVC050,0.00,0.00,VWS V14.01,2013-01-23 07:05:00,
2013-01-23 02:08:00,68.0,55.0,30.20,NE,53,3.0,4.0,63,0.00,,OVC,0.00,0.00,VWS V14.01,2013-01-23 07:08:00,
2013-01-23 02:10:00,68.0,55.0,30.21,ENE,66,4.0,4.0,63,0.00,,OVC050,0.00,0.00,VWS V14.01,2013-01-23 07:10:00,
2013-01-23 02:14:00,68.0,55.0,30.21,NNE,25,5.0,7.0,63,0.00,,OVC,0.00,0.00,VWS V14.01,2013-01-23 07:14:00,
2013-01-23 02:15:00,68.0,55.0,30.21,NE,44,5.0,10.0,63,0.00,,OVC050,0.00,0.00,VWS V14.01,2013-01-23 07:15:00,
2013-01-23 02:18:00,68.1,55.0,30.21,NE,49,3.0,11.0,63,0.00,,OVC,0.00,0.00,VWS V14.01,2013-01-23 07:18:00,
2013-01-23 02:20:00,68.2,55.1,30.21,NE,38,4.0,9.0,63,0.00,,OVC050,0.00,0.00,VWS V14.01,2013-01-23 07:20:00,
2013-01-23 02:23:00,68.2,55.1,30.21,NE,53,12.0,14.0,63,0.00,,OVC,0.00,0.00,VWS V14.01,2013-01-23 07:23:00,
2013-01-23 02:25:00,68.3,55.2,30.21,NE,40,10.0,14.0,63,0.00,,OVC050,0.00,0.00,VWS V14.01,2013-01-23 07:25:00,
2013-01-23 02:28:00,68.3,54.8,30.21,ENE,58,10.0,13.0,62,0.00,,OVC,0.00,0.00,VWS V14.01,2013-01-23 07:28:00,
2013-01-23 02:30:00,68.3,54.8,30.21,ENE,70,9.0,13.0,62,0.00,,OVC050,0.00,0.00,VWS V14.01,2013-01-23 07:30:00,
2013-01-23 02:34:00,68.4,54.4,30.21,NE,44,6.0,9.0,61,0.00,,OVC,0.00,0.00,VWS V14.01,2013-01-23 07:34:00,
2013-01-23 02:35:00,68.4,54.4,30.21,ENE,69,9.0,9.0,61,0.00,,OVC050,0.00,0.00,VWS V14.01,2013-01-23 07:35:00,
2013-01-23 02:39:00,68.4,54.4,30.22,NE,39,5.0,15.0,61,0.00,,OVC,0.00,0.00,VWS V14.01,2013-01-23 07:39:00,
2013-01-23 02:40:00,68.4,54.4,30.22,NE,53,6.0,9.0,61,0.00,,OVC050,0.00,0.00,VWS V14.01,2013-01-23 07:40:00,
2013-01-23 02:44:00,68.4,54.4,30.21,NE,56,7.0,11.0,61,0.00,,OVC,0.00,0.00,VWS V14.01,2013-01-23 07:44:00,
2013-01-23 02:45:00,68.4,54.4,30.21,ESE,106,5.0,7.0,61,0.00,,OVC050,0.00,0.00,VWS V14.01,2013-01-23 07:45:00,
2013-01-23 02:48:00,68.3,54.3,30.21,NE,55,11.0,14.0,61,0.00,,OVC,0.00,0.00,VWS V14.01,2013-01-23 07:48:00,
2013-01-23 02:50:00,68.3,54.3,30.21,ENE,73,4.0,14.0,61,0.00,,OVC050,0.00,0.00,VWS V14.01,2013-01-23 07:50:00,
2013-01-23 02:53:00,68.3,54.3,30.21,NE,54,6.0,9.0,61,0.00,,OVC,0.00,0.00,VWS V14.01,2013-01-23 07:53:00,
2013-01-23 02:55:00,68.3,54.3,30.21,ENE,61,4.0,7.0,61,0.00,,OVC050,0.00,0.00,VWS V14.01,2013-01-23 07:55:00,
2013-01-23 02:58:00,68.2,54.2,30.21,NE,42,3.0,8.0,61,0.00,,OVC,0.00,0.00,VWS V14.01,2013-01-23 07:58:00,
2013-01-23 03:00:00,68.1,54.2,30.21,NE,47,4.0,11.0,61,0.00,,OVC050,0.00,0.00,VWS V14.01,2013-01-23 08:00:00,
2013-01-23 03:03:00,68.1,53.7,30.21,ENE,72,8.0,13.0,60,0.00,,OVC,0.00,0.00,VWS V14.01,2013-01-23 08:03:00,
2013-01-23 03:05:00,68.1,53.7,30.21,NE,38,10.0,13.0,60,0.00,,OVC050,0.00,0.00,VWS V14.01,2013-01-23 08:05:00,
2013-01-23 03:08:00,68.1,53.7,30.21,NE,51,6.0,7.0,60,0.00,,OVC,0.00,0.00,VWS V14.01,2013-01-23 08:08:00,
2013-01-23 03:10:00,68.1,53.7,30.21,NE,49,6.0,8.0,60,0.00,,OVC050,0.00,0.00,VWS V14.01,2013-01-23 08:10:00,
2013-01-23 03:13:00,68.1,53.7,30.21,ENE,64,3.0,8.0,60,0.00,,OVC,0.00,0.00,VWS V14.01,2013-01-23 08:13:00,
2013-01-23 03:15:00,68.1,53.7,30.21,ENE,57,2.0,7.0,60,0.00,,OVC050,0.00,0.00,VWS V14.01,2013-01-23 08:15:00,
2013-01-23 03:18:00,68.0,53.6,30.22,ENE,57,4.0,7.0,60,0.00,,OVC,0.00,0.00,VWS V14.01,2013-01-23 08:18:00,
2013-01-23 03:20:00,68.0,53.6,30.21,NE,50,4.0,4.0,60,0.00,,OVC050,0.00,0.00,VWS V14.01,2013-01-23 08:20:00,
2013-01-23 03:23:00,67.9,53.5,30.21,ENE,68,3.0,8.0,60,0.00,,OVC,0.00,0.00,VWS V14.01,2013-01-23 08:23:00,
2013-01-23 03:25:00,67.9,53.1,30.21,NE,41,6.0,9.0,59,0.00,,OVC050,0.00,0.00,VWS V14.01,2013-01-23 08:25:00,
2013-01-23 03:28:00,67.8,53.0,30.21,NE,54,7.0,9.0,59,0.00,,OVC,0.00,0.00,VWS V14.01,2013-01-23 08:28:00,
2013-01-23 03:30:00,67.8,53.0,30.21,NE,51,7.0,9.0,59,0.00,,OVC050,0.00,0.00,VWS V14.01,2013-01-23 08:30:00,
2013-01-23 03:33:00,67.8,53.4,30.21,NE,43,4.0,6.0,60,0.00,,OVC,0.00,0.00,VWS V14.01,2013-01-23 08:33:00,
2013-01-23 03:35:00,67.8,53.4,30.21,NE,53,2.0,6.0,60,0.00,,OVC050,0.00,0.00,VWS V14.01,2013-01-23 08:35:00,
2013-01-23 03:38:00,67.7,53.3,30.22,NE,49,1.0,4.0,60,0.00,,OVC,0.00,0.00,VWS V14.01,2013-01-23 08:38:00,
2013-01-23 03:40:00,67.6,53.2,30.21,East,87,5.0,5.0,60,0.00,,OVC050,0.00,0.00,VWS V14.01,2013-01-23 08:40:00,
2013-01-23 03:43:00,67.5,53.1,30.21,NE,44,5.0,7.0,60,0.00,,OVC,0.00,0.00,VWS V14.01,2013-01-23 08:43:00,
2013-01-23 03:45:00,67.4,53.0,30.21,ENE,58,5.0,5.0,60,0.00,,OVC050,0.00,0.00,VWS V14.01,2013-01-23 08:45:00,
2013-01-23 03:48:00,67.3,53.0,30.20,NE,48,2.0,7.0,60,0.00,,OVC,0.00,0.00,VWS V14.01,2013-01-23 08:48:00,
2013-01-23 03:50:00,67.3,53.0,30.21,NE,49,3.0,7.0,60,0.00,,OVC050,0.00,0.00,VWS V14.01,2013-01-23 08:50:00,
2013-01-23 03:53:00,67.2,52.9,30.20,ENE,71,5.0,8.0,60,0.00,,OVC,0.00,0.00,VWS V14.01,2013-01-23 08:53:00,
2013-01-23 03:55:00,67.2,52.9,30.20,NE,48,5.0,7.0,60,0.00,,OVC050,0.00,0.00,VWS V14.01,2013-01-23 08:55:00,
2013-01-23 03:58:00,67.2,52.9,30.20,ENE,57,3.0,7.0,60,0.00,,OVC,0.00,0.00,VWS V14.01,2013-01-23 08:58:00,
2013-01-23 04:00:00,67.2,52.9,30.20,NE,38,3.0,8.0,60,0.00,,OVC050,0.00,0.00,VWS V14.01,2013-01-23 09:00:00,
2013-01-23 04:03:00,67.3,53.0,30.20,NE,55,4.0,10.0,60,0.00,,OVC,0.00,0.00,VWS V14.01,2013-01-23 09:03:00,
2013-01-23 04:05:00,67.4,52.6,30.20,NE,55,5.0,9.0,59,0.00,,OVC050,0.00,0.00,VWS V14.01,2013-01-23 09:05:00,
2013-01-23 04:08:00,67.5,53.1,30.20,NE,51,3.0,9.0,60,0.00,,OVC,0.00,0.00,VWS V14.01,2013-01-23 09:08:00,
2013-01-23 04:10:00,67.5,53.1,30.20,ENE,61,4.0,7.0,60,0.00,,OVC050,0.00,0.00,VWS V14.01,2013-01-23 09:10:00,
2013-01-23 04:13:00,67.5,53.6,30.21,NE,51,4.0,9.0,61,0.00,,OVC,0.00,0.00,VWS V14.01,2013-01-23 09:13:00,
2013-01-23 04:15:00,67.5,53.6,30.21,ENE,64,4.0,5.0,61,0.00,,OVC050,0.00,0.00,VWS V14.01,2013-01-23 09:15:00,
2013-01-23 04:18:00,67.5,53.6,30.21,NE,46,3.0,9.0,61,0.00,,OVC,0.00,0.00,VWS V14.01,2013-01-23 09:18:00,
2013-01-23 04:20:00,67.5,53.6,30.21,NE,42,3.0,9.0,61,0.00,,OVC050,0.00,0.00,VWS V14.01,2013-01-23 09:20:00,
2013-01-23 04:23:00,67.5,54.0,30.21,NE,38,6.0,7.0,62,0.00,,OVC,0.00,0.00,VWS V14.01,2013-01-23 09:23:00,
2013-01-23 04:25:00,67.5,54.0,30.21,NNE,26,4.0,8.0,62,0.00,,OVC050,0.00,0.00,VWS V14.01,2013-01-23 09:25:00,
2013-01-23 04:28:00,67.6,54.1,30.21,NE,38,2.0,5.0,62,0.00,,OVC,0.00,0.00,VWS V14.01,2013-01-23 09:28:00,
2013-01-23 04:30:00,67.6,54.1,30.20,NE,55,4.0,5.0,62,0.00,,OVC050,0.00,0.00,VWS V14.01,2013-01-23 09:30:00,
2013-01-23 04:33:00,67.5,54.0,30.21,NE,47,4.0,4.0,62,0.00,,OVC,0.00,0.00,VWS V14.01,2013-01-23 09:33:00,
2013-01-23 04:35:00,67.5,54.0,30.20,NE,53,9.0,11.0,62,0.00,,OVC050,0.00,0.00,VWS V14.01,2013-01-23 09:35:00,
2013-01-23 04:38:00,67.6,53.7,30.20,ENE,65,3.0,5.0,61,0.00,,OVC,0.00,0.00,VWS V14.01,2013-01-23 09:38:00,
2013-01-23 04:40:00,67.6,53.7,30.20,ENE,59,5.0,7.0,61,0.00,,OVC050,0.00,0.00,VWS V14.01,2013-01-23 09:40:00,
2013-01-23 04:43:00,67.6,53.7,30.20,ENE,59,11.0,11.0,61,0.00,,OVC,0.00,0.00,VWS V14.01,2013-01-23 09:43:00,
2013-01-23 04:45:00,67.6,53.7,30.20,NE,34,5.0,11.0,61,0.00,,OVC050,0.00,0.00,VWS V14.01,2013-01-23 09:45:00,
2013-01-23 04:48:00,67.7,53.8,30.21,NE,40,7.0,8.0,61,0.00,,OVC,0.00,0.00,VWS V14.01,2013-01-23 09:48:00,
2013-01-23 04:50:00,67.7,53.8,30.21,NE,35,3.0,10.0,61,0.00,,OVC050,0.00,0.00,VWS V14.01,2013-01-23 09:50:00,
2013-01-23 04:53:00,67.7,53.8,30.21,ENE,69,4.0,7.0,61,0.00,,OVC,0.00,0.00,VWS V14.01,2013-01-23 09:53:00,
2013-01-23 04:55:00,67.7,53.3,30.21,NE,41,5.0,7.0,60,0.00,,OVC050,0.00,0.00,VWS V14.01,2013-01-23 09:55:00,
2013-01-23 04:58:00,67.7,53.3,30.21,ENE,60,5.0,8.0,60,0.00,,OVC,0.00,0.00,VWS V14.01,2013-01-23 09:58:00,
2013-01-23 05:00:00,67.7,53.3,30.21,East,84,3.0,8.0,60,0.00,,OVC050,0.00,0.00,VWS V14.01,2013-01-23 10:00:00,
2013-01-23 05:03:00,67.7,53.3,30.21,ENE,65,3.0,9.0,60,0.00,,OVC,0.00,0.00,VWS V14.01,2013-01-23 10:03:00,
2013-01-23 05:05:00,67.7,53.3,30.21,NE,51,7.0,9.0,60,0.00,,OVC050,0.00,0.00,VWS V14.01,2013-01-23 10:05:00,
2013-01-23 05:08:00,67.7,53.3,30.21,ENE,57,10.0,10.0,60,0.00,,OVC,0.00,0.00,VWS V14.01,2013-01-23 10:08:00,
2013-01-23 05:10:00,67.7,53.3,30.21,ENE,59,7.0,11.0,60,0.00,,OVC050,0.00,0.00,VWS V14.01,2013-01-23 10:10:00,
2013-01-23 05:13:00,67.7,53.3,30.21,ENE,57,7.0,7.0,60,0.00,,OVC,0.00,0.00,VWS V14.01,2013-01-23 10:13:00,
2013-01-23 05:15:00,67.7,53.3,30.21,ENE,75,4.0,9.0,60,0.00,,OVC050,0.00,0.00,VWS V14.01,2013-01-23 10:15:00,
2013-01-23 05:18:00,67.7,53.8,30.21,ENE,69,4.0,10.0,61,0.00,,OVC,0.00,0.00,VWS V14.01,2013-01-23 10:18:00,
2013-01-23 05:20:00,67.7,53.8,30.21,NNE,30,5.0,6.0,61,0.00,,OVC050,0.00,0.00,VWS V14.01,2013-01-23 10:20:00,
2013-01-23 05:23:00,67.6,53.7,30.21,ENE,65,10.0,10.0,61,0.00,,OVC,0.00,0.00,VWS V14.01,2013-01-23 10:23:00,
2013-01-23 05:25:00,67.6,54.1,30.21,NE,49,4.0,10.0,62,0.00,,OVC050,0.00,0.00,VWS V14.01,2013-01-23 10:25:00,
2013-01-23 05:28:00,67.6,54.1,30.21,ENE,58,10.0,10.0,62,0.00,,OVC,0.00,0.00,VWS V14.01,2013-01-23 10:28:00,
2013-01-23 05:30:00,67.6,54.1,30.21,NE,54,4.0,10.0,62,0.00,,OVC050,0.00,0.00,VWS V14.01,2013-01-23 10:30:00,
2013-01-23 05:33:00,67.6,54.1,30.22,NE,38,2.0,7.0,62,0.00,,OVC,0.00,0.00,VWS V14.01,2013-01-23 10:33:00,
2013-01-23 05:35:00,67.6,54.1,30.22,NE,45,4.0,7.0,62,0.00,,OVC050,0.00,0.00,VWS V14.01,2013-01-23 10:35:00,
2013-01-23 05:38:00,67.6,53.7,30.22,NE,40,5.0,10.0,61,0.00,,OVC,0.00,0.00,VWS V14.01,2013-01-23 10:38:00,
2013-01-23 05:40:00,67.6,53.7,30.22,NE,46,3.0,8.0,61,0.00,,OVC050,0.00,0.00,VWS V14.01,2013-01-23 10:40:00,
2013-01-23 05:43:00,67.6,53.7,30.22,NNE,18,4.0,11.0,61,0.00,,OVC,0.00,0.00,VWS V14.01,2013-01-23 10:43:00,
2013-01-23 05:45:00,67.6,53.7,30.22,NNE,22,3.0,10.0,61,0.00,,OVC050,0.00,0.00,VWS V14.01,2013-01-23 10:45:00,
2013-01-23 05:48:00,67.7,53.8,30.22,ENE,64,5.0,7.0,61,0.00,,OVC,0.00,0.00,VWS V14.01,2013-01-23 10:48:00,
2013-01-23 05:50:00,67.7,53.8,30.22,ENE,59,4.0,8.0,61,0.00,,OVC050,0.00,0.00,VWS V14.01,2013-01-23 10:50:00,
2013-01-23 05:53:00,67.7,53.3,30.22,NE,54,6.0,9.0,60,0.00,,OVC,0.00,0.00,VWS V14.01,2013-01-23 10:53:00,
2013-01-23 05:55:00,67.7,53.3,30.22,NE,38,5.0,9.0,60,0.00,,OVC050,0.00,0.00,VWS V14.01,2013-01-23 10:55:00,
2013-01-23 05:58:00,67.7,53.3,30.22,NE,45,5.0,5.0,60,0.00,,OVC,0.00,0.00,VWS V14.01,2013-01-23 10:58:00,
2013-01-23 06:00:00,67.8,53.4,30.23,NE,45,1.0,5.0,60,0.00,,OVC050,0.00,0.00,VWS V14.01,2013-01-23 11:00:00,
2013-01-23 06:03:00,67.7,53.3,30.22,NE,36,4.0,6.0,60,0.00,,OVC,0.00,0.00,VWS V14.01,2013-01-23 11:03:00,
2013-01-23 06:05:00,67.7,53.8,30.23,NNE,33,2.0,7.0,61,0.00,,OVC050,0.00,0.00,VWS V14.01,2013-01-23 11:05:00,
2013-01-23 06:08:00,67.7,53.8,30.23,NE,53,3.0,7.0,61,0.00,,OVC,0.00,0.00,VWS V14.01,2013-01-23 11:08:00,
2013-01-23 06:10:00,67.7,53.8,30.23,NNE,30,2.0,4.0,61,0.00,,OVC050,0.00,0.00,VWS V14.01,2013-01-23 11:10:00,
2013-01-23 06:13:00,67.6,54.1,30.23,NE,56,3.0,3.0,62,0.00,,OVC,0.00,0.00,VWS V14.01,2013-01-23 11:13:00,
2013-01-23 06:15:00,67.6,54.1,30.23,NE,45,3.0,8.0,62,0.00,,OVC050,0.00,0.00,VWS V14.01,2013-01-23 11:15:00,
2013-01-23 06:18:00,67.6,53.7,30.23,East,84,6.0,8.0,61,0.00,,OVC,0.00,0.00,VWS V14.01,2013-01-23 11:18:00,
2013-01-23 06:20:00,67.6,53.7,30.23,NE,50,8.0,8.0,61,0.00,,OVC050,0.00,0.00,VWS V14.01,2013-01-23 11:20:00,
2013-01-23 06:23:00,67.5,53.6,30.23,NE,49,7.0,8.0,61,0.00,,OVC,0.00,0.00,VWS V14.01,2013-01-23 11:23:00,
2013-01-23 06:25:00,67.6,53.7,30.23,NE,51,8.0,12.0,61,0.00,,OVC050,0.00,0.00,VWS V14.01,2013-01-23 11:25:00,
2013-01-23 06:28:00,67.6,53.2,30.23,ENE,70,7.0,8.0,60,0.00,,OVC,0.00,0.00,VWS V14.01,2013-01-23 11:28:00,
2013-01-23 06:30:00,67.6,53.2,30.23,NE,51,3.0,8.0,60,0.00,,OVC050,0.00,0.00,VWS V14.01,2013-01-23 11:30:00,
2013-01-23 06:33:00,67.7,53.3,30.24,NE,47,4.0,6.0,60,0.00,,OVC,0.00,0.00,VWS V14.01,2013-01-23 11:33:00,
2013-01-23 06:35:00,67.7,53.3,30.24,ENE,59,4.0,7.0,60,0.00,,OVC050,0.00,0.00,VWS V14.01,2013-01-23 11:35:00,
2013-01-23 06:38:00,67.6,53.2,30.23,NE,55,7.0,9.0,60,0.00,,OVC,0.00,0.00,VWS V14.01,2013-01-23 11:38:00,
2013-01-23 06:40:00,67.7,53.3,30.23,NE,51,4.0,9.0,60,0.00,,OVC050,0.00,0.00,VWS V14.01,2013-01-23 11:40:00,
2013-01-23 06:43:00,67.7,53.3,30.23,NE,46,2.0,7.0,60,0.00,,OVC,0.00,0.00,VWS V14.01,2013-01-23 11:43:00,
2013-01-23 06:45:00,67.7,53.3,30.23,ENE,62,7.0,7.0,60,0.00,,OVC050,0.00,0.00,VWS V14.01,2013-01-23 11:45:00,
2013-01-23 06:48:00,67.7,53.8,30.23,ENE,72,5.0,7.0,61,0.00,,OVC,0.00,0.00,VWS V14.01,2013-01-23 11:48:00,
2013-01-23 06:50:00,67.7,53.3,30.23,NE,50,3.0,8.0,60,0.00,,OVC050,0.00,0.00,VWS V14.01,2013-01-23 11:50:00,
2013-01-23 06:53:00,67.6,53.2,30.24,NE,54,3.0,4.0,60,0.00,,OVC,0.00,0.00,VWS V14.01,2013-01-23 11:53:00,
2013-01-23 06:55:00,67.6,53.2,30.24,NNE,33,4.0,5.0,60,0.00,,OVC050,0.00,0.00,VWS V14.01,2013-01-23 11:55:00,
2013-01-23 06:58:00,67.7,53.3,30.24,NE,55,4.0,9.0,60,0.00,,OVC,0.00,0.00,VWS V14.01,2013-01-23 11:58:00,
2013-01-23 07:00:00,67.7,53.3,30.24,NE,39,4.0,4.0,60,0.00,,OVC050,0.00,0.00,VWS V14.01,2013-01-23 12:00:00,
2013-01-23 07:03:00,67.7,53.3,30.24,NE,48,5.0,8.0,60,0.00,,OVC,0.00,0.00,VWS V14.01,2013-01-23 12:03:00,
2013-01-23 07:05:00,67.7,53.3,30.24,NE,55,4.0,8.0,60,0.00,,OVC050,0.00,0.00,VWS V14.01,2013-01-23 12:05:00,
2013-01-23 07:08:00,67.8,53.4,30.25,NE,51,4.0,7.0,60,0.00,,OVC,0.00,0.00,VWS V14.01,2013-01-23 12:08:00,
2013-01-23 07:10:00,67.8,53.4,30.25,NE,46,3.0,5.0,60,0.00,,OVC050,0.00,0.00,VWS V14.01,2013-01-23 12:10:00,
2013-01-23 07:13:00,67.8,53.4,30.25,NE,51,2.0,5.0,60,0.00,,OVC,0.00,0.00,VWS V14.01,2013-01-23 12:13:00,
2013-01-23 07:15:00,67.8,53.0,30.25,NE,50,3.0,5.0,59,0.00,,OVC050,0.00,0.00,VWS V14.01,2013-01-23 12:15:00,
2013-01-23 07:18:00,67.8,53.9,30.25,NE,52,3.0,4.0,61,0.00,,OVC,0.00,0.00,VWS V14.01,2013-01-23 12:18:00,
2013-01-23 07:20:00,67.8,53.4,30.25,NE,53,1.0,4.0,60,0.00,,OVC050,0.00,0.00,VWS V14.01,2013-01-23 12:20:00,
2013-01-23 07:23:00,67.8,53.4,30.25,NE,53,1.0,2.0,60,0.00,,OVC,0.00,5.00,VWS V14.01,2013-01-23 12:23:00,
2013-01-23 07:25:00,67.8,53.4,30.26,NE,53,0.0,2.0,60,0.00,,OVC050,0.00,5.00,VWS V14.01,2013-01-23 12:25:00,
2013-01-23 07:28:00,67.7,54.2,30.26,NW,321,3.0,5.0,62,0.00,,OVC,0.00,7.00,VWS V14.01,2013-01-23 12:28:00,
2013-01-23 07:30:00,67.6,55.8,30.26,NW,323,1.0,4.0,66,0.00,,OVC050,0.00,9.00,VWS V14.01,2013-01-23 12:30:00,
2013-01-23 07:33:00,67.1,57.0,30.26,NNW,335,1.0,4.0,70,0.00,,OVC,0.00,14.00,VWS V14.01,2013-01-23 12:33:00,
2013-01-23 07:35:00,66.8,56.7,30.26,NNW,335,3.0,3.0,70,0.00,,OVC050,0.00,16.00,VWS V14.01,2013-01-23 12:35:00,
2013-01-23 07:38:00,66.1,56.4,30.26,NW,324,1.0,5.0,71,0.00,,OVC,0.00,19.00,VWS V14.01,2013-01-23 12:38:00,
2013-01-23 07:40:00,65.9,56.6,30.26,NW,324,1.0,2.0,72,0.00,,OVC050,0.00,21.00,VWS V14.01,2013-01-23 12:40:00,
2013-01-23 07:43:00,65.4,56.9,30.26,NNW,327,2.0,4.0,74,0.00,,OVC,0.00,28.00,VWS V14.01,2013-01-23 12:43:00,
2013-01-23 07:45:00,65.2,56.7,30.26,NNW,332,2.0,4.0,74,0.00,,OVC050,0.00,32.00,VWS V14.01,2013-01-23 12:45:00,
2013-01-23 07:48:00,64.9,56.8,30.26,NNW,332,4.0,5.0,75,0.00,,OVC,0.00,33.00,VWS V14.01,2013-01-23 12:48:00,
2013-01-23 07:50:00,64.8,57.1,30.26,NNW,330,2.0,5.0,76,0.00,,OVC050,0.00,33.00,VWS V14.01,2013-01-23 12:50:00,
2013-01-23 07:53:00,64.6,56.9,30.26,NNW,340,1.0,4.0,76,0.00,,OVC,0.00,44.00,VWS V14.01,2013-01-23 12:53:00,
2013-01-23 07:55:00,64.5,56.8,30.26,NNW,334,3.0,3.0,76,0.00,,OVC050,0.00,44.00,VWS V14.01,2013-01-23 12:55:00,
2013-01-23 07:58:00,64.4,57.0,30.26,NW,325,4.0,4.0,77,0.00,,OVC,0.00,54.00,VWS V14.01,2013-01-23 12:58:00,
2013-01-23 08:00:00,64.3,56.9,30.26,NNW,336,2.0,4.0,77,0.00,,OVC050,0.00,58.00,VWS V14.01,2013-01-23 13:00:00,
2013-01-23 08:03:00,64.2,56.8,30.26,NNW,341,4.0,4.0,77,0.00,,OVC,0.00,72.00,VWS V14.01,2013-01-23 13:03:00,
2013-01-23 08:05:00,64.3,56.9,30.26,NNW,338,3.0,4.0,77,0.00,,OVC050,0.00,79.00,VWS V14.01,2013-01-23 13:05:00,
2013-01-23 08:08:00,64.3,57.0,30.26,NNW,338,2.0,5.0,77,0.00,,OVC,0.00,83.00,VWS V14.01,2013-01-23 13:08:00,
2013-01-23 08:10:00,64.3,56.9,30.26,NNW,338,2.0,3.0,77,0.00,,OVC050,0.00,79.00,VWS V14.01,2013-01-23 13:10:00,
2013-01-23 08:13:00,64.3,56.6,30.27,NNW,337,5.0,5.0,76,0.00,,OVC,0.00,76.00,VWS V14.01,2013-01-23 13:13:00,
2013-01-23 08:15:00,64.3,56.6,30.27,NNW,341,2.0,5.0,76,0.00,,OVC050,0.00,77.00,VWS V14.01,2013-01-23 13:15:00,
2013-01-23 08:18:00,64.4,56.7,30.27,NNW,336,2.0,4.0,76,0.00,,OVC,0.00,81.00,VWS V14.01,2013-01-23 13:18:00,
2013-01-23 08:20:00,64.4,56.7,30.27,NNW,336,1.0,2.0,76,0.00,,OVC050,0.00,81.00,VWS V14.01,2013-01-23 13:20:00,
2013-01-23 08:23:00,64.4,56.7,30.27,NNW,336,2.0,4.0,76,0.00,,OVC,0.00,84.00,VWS V14.01,2013-01-23 13:23:00,
2013-01-23 08:25:00,64.4,56.7,30.27,North,351,2.0,5.0,76,0.00,,OVC050,0.00,86.00,VWS V14.01,2013-01-23 13:25:00,
2013-01-23 08:28:00,64.5,56.8,30.28,NNW,342,2.0,4.0,76,0.00,,OVC,0.00,88.00,VWS V14.01,2013-01-23 13:28:00,
2013-01-23 08:30:00,64.5,56.8,30.28,NNW,333,2.0,4.0,76,0.00,,OVC050,0.00,86.00,VWS V14.01,2013-01-23 13:30:00,
2013-01-23 08:33:00,64.5,56.8,30.28,NNW,332,3.0,4.0,76,0.00,,OVC,0.00,86.00,VWS V14.01,2013-01-23 13:33:00,
2013-01-23 08:35:00,64.5,56.8,30.28,NNW,338,3.0,4.0,76,0.00,,OVC050,0.00,88.00,VWS V14.01,2013-01-23 13:35:00,
2013-01-23 08:38:00,64.5,56.8,30.28,NNW,335,2.0,3.0,76,0.00,,OVC,0.00,98.00,VWS V14.01,2013-01-23 13:38:00,
2013-01-23 08:40:00,64.5,56.8,30.28,NNW,335,2.0,4.0,76,0.00,,OVC050,0.00,107.00,VWS V14.01,2013-01-23 13:40:00,
2013-01-23 08:43:00,64.5,56.8,30.28,NNW,329,3.0,3.0,76,0.00,,OVC,0.00,130.00,VWS V14.01,2013-01-23 13:43:00,
2013-01-23 08:45:00,64.6,56.9,30.28,NNW,341,3.0,3.0,76,0.00,,OVC050,0.00,151.00,VWS V14.01,2013-01-23 13:45:00,
2013-01-23 08:48:00,64.7,56.6,30.29,NNW,337,6.0,7.0,75,0.00,,OVC,0.00,171.00,VWS V14.01,2013-01-23 13:48:00,
2013-01-23 08:50:00,64.8,56.7,30.29,NNW,339,3.0,6.0,75,0.00,,OVC050,0.00,181.00,VWS V14.01,2013-01-23 13:50:00,
2013-01-23 08:53:00,65.0,56.9,30.28,NNW,345,2.0,3.0,75,0.00,,OVC,0.00,237.00,VWS V14.01,2013-01-23 13:53:00,
2013-01-23 08:55:00,65.1,57.4,30.28,NNW,344,3.0,6.0,76,0.00,,OVC050,0.00,250.00,VWS V14.01,2013-01-23 13:55:00,
2013-01-23 08:58:00,65.7,57.2,30.28,North,350,1.0,5.0,74,0.00,,OVC,0.00,236.00,VWS V14.01,2013-01-23 13:58:00,
2013-01-23 09:00:00,65.8,57.3,30.29,North,350,1.0,2.0,74,0.00,,OVC050,0.00,272.00,VWS V14.01,2013-01-23 14:00:00,
2013-01-23 09:03:00,66.2,57.3,30.29,North,355,2.0,4.0,73,0.00,,OVC,0.00,236.00,VWS V14.01,2013-01-23 14:03:00,
2013-01-23 09:05:00,66.3,57.4,30.29,North,355,2.0,3.0,73,0.00,,OVC050,0.00,229.00,VWS V14.01,2013-01-23 14:05:00,
2013-01-23 09:08:00,66.5,56.8,30.29,NNW,344,1.0,3.0,71,0.00,,OVC,0.00,250.00,VWS V14.01,2013-01-23 14:08:00,
2013-01-23 09:10:00,66.5,56.8,30.29,NNW,345,1.0,2.0,71,0.00,,OVC050,0.00,278.00,VWS V14.01,2013-01-23 14:10:00,
2013-01-23 09:13:00,66.7,57.0,30.29,NNW,347,0.0,2.0,71,0.00,,OVC,0.00,311.00,VWS V14.01,2013-01-23 14:13:00,
2013-01-23 09:15:00,66.8,57.1,30.29,North,355,1.0,2.0,71,0.00,,OVC050,0.00,283.00,VWS V14.01,2013-01-23 14:15:00,
2013-01-23 09:18:00,67.1,57.0,30.28,NNE,22,1.0,2.0,70,0.00,,OVC,0.00,302.00,VWS V14.01,2013-01-23 14:18:00,
2013-01-23 09:20:00,67.2,57.1,30.29,NNE,22,1.0,2.0,70,0.00,,OVC050,0.00,316.00,VWS V14.01,2013-01-23 14:20:00,
2013-01-23 09:23:00,67.6,57.1,30.29,NNW,342,2.0,4.0,69,0.00,,OVC,0.00,490.00,VWS V14.01,2013-01-23 14:23:00,
2013-01-23 09:25:00,67.8,57.3,30.29,North,355,3.0,5.0,69,0.00,,OVC050,0.00,374.00,VWS V14.01,2013-01-23 14:25:00,
2013-01-23 09:28:00,68.2,57.2,30.30,North,355,1.0,2.0,68,0.00,,OVC,0.00,258.00,VWS V14.01,2013-01-23 14:28:00,
2013-01-23 09:30:00,68.3,57.3,30.30,North,355,2.0,2.0,68,0.00,,OVC050,0.00,223.00,VWS V14.01,2013-01-23 14:30:00,
2013-01-23 09:33:00,68.2,57.2,30.29,North,355,3.0,3.0,68,0.00,,OVC,0.00,171.00,VWS V14.01,2013-01-23 14:33:00,
2013-01-23 09:35:00,68.2,57.2,30.30,NNW,348,3.0,4.0,68,0.00,,OVC050,0.00,165.00,VWS V14.01,2013-01-23 14:35:00,
2013-01-23 09:38:00,68.1,57.2,30.30,NNW,341,5.0,6.0,68,0.00,,OVC,0.00,213.00,VWS V14.01,2013-01-23 14:38:00,
2013-01-23 09:40:00,68.1,57.2,30.30,NNW,348,1.0,5.0,68,0.00,,OVC050,0.00,234.00,VWS V14.01,2013-01-23 14:40:00,
2013-01-23 09:43:00,68.2,57.2,30.31,North,355,2.0,6.0,68,0.00,,OVC,0.00,290.00,VWS V14.01,2013-01-23 14:43:00,
2013-01-23 09:45:00,68.3,57.3,30.31,North,355,1.0,5.0,68,0.00,,OVC050,0.00,294.00,VWS V14.01,2013-01-23 14:45:00,
2013-01-23 09:48:00,68.6,56.8,30.30,North,349,4.0,4.0,66,0.00,,OVC,0.00,290.00,VWS V14.01,2013-01-23 14:48:00,
2013-01-23 09:50:00,68.7,57.3,30.30,NNW,346,2.0,4.0,67,0.00,,OVC050,0.00,290.00,VWS V14.01,2013-01-23 14:50:00,
2013-01-23 09:53:00,68.9,57.5,30.30,North,355,2.0,3.0,67,0.00,,OVC,0.00,271.00,VWS V14.01,2013-01-23 14:53:00,
2013-01-23 09:55:00,68.9,57.5,30.30,NNW,344,4.0,6.0,67,0.00,,OVC050,0.00,255.00,VWS V14.01,2013-01-23 14:55:00,
2013-01-23 09:58:00,69.0,57.6,30.30,NNW,335,2.0,5.0,67,0.00,,OVC,0.00,258.00,VWS V14.01,2013-01-23 14:58:00,
2013-01-23 10:00:00,69.0,57.2,30.30,NNW,336,1.0,4.0,66,0.00,,OVC050,0.00,287.00,VWS V14.01,2013-01-23 15:00:00,
2013-01-23 10:03:00,69.1,57.7,30.30,North,350,2.0,3.0,67,0.00,,OVC,0.00,253.00,VWS V14.01,2013-01-23 15:03:00,
2013-01-23 10:05:00,69.1,56.8,30.30,NNE,24,1.0,6.0,65,0.00,,OVC050,0.00,257.00,VWS V14.01,2013-01-23 15:05:00,
2013-01-23 10:08:00,68.9,57.1,30.30,North,355,2.0,3.0,66,0.00,,OVC,0.00,272.00,VWS V14.01,2013-01-23 15:08:00,
2013-01-23 10:10:00,68.9,57.1,30.30,North,355,2.0,3.0,66,0.00,,OVC050,0.00,290.00,VWS V14.01,2013-01-23 15:10:00,
2013-01-23 10:13:00,69.0,57.6,30.30,North,355,2.0,3.0,67,0.00,,OVC,0.00,309.00,VWS V14.01,2013-01-23 15:13:00,
2013-01-23 10:15:00,69.1,57.7,30.30,NW,326,3.0,5.0,67,0.00,,OVC050,0.00,287.00,VWS V14.01,2013-01-23 15:15:00,
2013-01-23 10:18:00,69.3,57.0,30.30,NNW,346,2.0,8.0,65,0.00,,OVC,0.00,278.00,VWS V14.01,2013-01-23 15:18:00,
2013-01-23 10:20:00,69.3,57.5,30.30,North,5,3.0,8.0,66,0.00,,OVC050,0.00,267.00,VWS V14.01,2013-01-23 15:20:00,
2013-01-23 10:23:00,69.3,57.0,30.30,North,355,1.0,5.0,65,0.00,,OVC,0.00,251.00,VWS V14.01,2013-01-23 15:23:00,
2013-01-23 10:25:00,69.3,57.0,30.30,North,355,1.0,2.0,65,0.00,,OVC050,0.00,244.00,VWS V14.01,2013-01-23 15:25:00,
2013-01-23 10:28:00,69.4,57.1,30.31,North,355,2.0,4.0,65,0.00,,OVC,0.00,315.00,VWS V14.01,2013-01-23 15:28:00,
2013-01-23 10:30:00,69.4,56.7,30.30,NNW,331,5.0,7.0,64,0.00,,OVC050,0.00,357.00,VWS V14.01,2013-01-23 15:30:00,
2013-01-23 10:33:00,69.7,57.4,30.31,NNW,329,4.0,8.0,65,0.00,,OVC,0.00,429.00,VWS V14.01,2013-01-23 15:33:00,
2013-01-23 10:35:00,69.9,57.6,30.31,NNW,333,4.0,5.0,65,0.00,,OVC050,0.00,478.00,VWS V14.01,2013-01-23 15:35:00,
2013-01-23 10:38:00,70.4,57.2,30.30,NNW,342,2.0,6.0,63,0.00,,OVC,0.00,527.00,VWS V14.01,2013-01-23 15:38:00,
2013-01-23 10:40:00,70.5,58.2,30.30,North,355,3.0,6.0,65,0.00,,OVC050,0.00,450.00,VWS V14.01,2013-01-23 15:40:00,
2013-01-23 10:43:00,70.7,57.5,30.30,NNW,340,3.0,5.0,63,0.00,,OVC,0.00,325.00,VWS V14.01,2013-01-23 15:43:00,
2013-01-23 10:45:00,70.7,57.9,30.30,NNW,340,2.0,4.0,64,0.00,,OVC050,0.00,387.00,VWS V14.01,2013-01-23 15:45:00,
2013-01-23 10:48:00,70.7,57.9,30.30,NNW,336,4.0,5.0,64,0.00,,OVC,0.00,396.00,VWS V14.01,2013-01-23 15:48:00,
2013-01-23 10:50:00,70.8,58.0,30.30,NNW,344,5.0,9.0,64,0.00,,OVC050,0.00,445.00,VWS V14.01,2013-01-23 15:50:00,
2013-01-23 10:53:00,71.0,57.8,30.31,North,350,4.0,8.0,63,0.00,,OVC,0.00,577.00,VWS V14.01,2013-01-23 15:53:00,
2013-01-23 10:55:00,71.3,58.5,30.31,North,355,2.0,5.0,64,0.00,,OVC050,0.00,508.00,VWS V14.01,2013-01-23 15:55:00,
2013-01-23 10:58:00,71.6,57.9,30.30,North,5,2.0,6.0,62,0.00,,OVC,0.00,443.00,VWS V14.01,2013-01-23 15:58:00,
2013-01-23 11:00:00,71.7,58.0,30.30,NNW,339,2.0,7.0,62,0.00,,OVC050,0.00,550.00,VWS V14.01,2013-01-23 16:00:00,
2013-01-23 11:03:00,71.6,57.5,30.30,North,360,4.0,8.0,61,0.00,,OVC,0.00,371.00,VWS V14.01,2013-01-23 16:03:00,
2013-01-23 11:05:00,71.6,57.9,30.30,NNW,330,3.0,7.0,62,0.00,,OVC050,0.00,403.00,VWS V14.01,2013-01-23 16:05:00,
2013-01-23 11:08:00,72.0,58.7,30.31,NNW,343,6.0,6.0,63,0.00,,OVC,0.00,427.00,VWS V14.01,2013-01-23 16:08:00,
2013-01-23 11:10:00,72.1,57.5,30.31,NNW,334,5.0,8.0,60,0.00,,OVC050,0.00,427.00,VWS V14.01,2013-01-23 16:10:00,
2013-01-23 11:13:00,72.1,57.9,30.30,North,355,4.0,6.0,61,0.00,,OVC,0.00,577.00,VWS V14.01,2013-01-23 16:13:00,
2013-01-23 11:15:00,72.1,57.9,30.30,NNW,340,3.0,9.0,61,0.00,,OVC050,0.00,577.00,VWS V14.01,2013-01-23 16:15:00,
2013-01-23 11:18:00,72.9,58.2,30.29,NNW,348,6.0,7.0,60,0.00,,OVC,0.00,823.00,VWS V14.01,2013-01-23 16:18:00,
2013-01-23 11:20:00,73.0,57.8,30.29,NNW,344,4.0,7.0,59,0.00,,OVC050,0.00,823.00,VWS V14.01,2013-01-23 16:20:00,
2013-01-23 11:23:00,73.2,58.5,30.29,NW,321,6.0,7.0,60,0.00,,OVC,0.00,856.00,VWS V14.01,2013-01-23 16:23:00,
2013-01-23 11:25:00,73.4,58.7,30.29,North,355,2.0,7.0,60,0.00,,OVC050,0.00,842.00,VWS V14.01,2013-01-23 16:25:00,
2013-01-23 11:28:00,73.6,57.9,30.29,NNE,23,2.0,8.0,58,0.00,,OVC,0.00,856.00,VWS V14.01,2013-01-23 16:28:00,
2013-01-23 11:30:00,73.4,57.7,30.29,NNE,28,2.0,7.0,58,0.00,,OVC050,0.00,338.00,VWS V14.01,2013-01-23 16:30:00,
2013-01-23 11:33:00,73.5,58.3,30.29,North,355,8.0,9.0,59,0.00,,OVC,0.00,754.00,VWS V14.01,2013-01-23 16:33:00,
2013-01-23 11:35:00,73.6,57.9,30.29,North,10,3.0,8.0,58,0.00,,OVC050,0.00,550.00,VWS V14.01,2013-01-23 16:35:00,
2013-01-23 11:38:00,73.4,57.3,30.29,NE,40,2.0,4.0,57,0.00,,OVC,0.00,185.00,VWS V14.01,2013-01-23 16:38:00,
2013-01-23 11:40:00,73.3,57.7,30.29,NNW,342,2.0,3.0,58,0.00,,OVC050,0.00,202.00,VWS V14.01,2013-01-23 16:40:00,
2013-01-23 11:43:00,72.6,57.0,30.29,NE,44,4.0,10.0,58,0.00,,OVC,0.00,195.00,VWS V14.01,2013-01-23 16:43:00,
2013-01-23 11:45:00,72.4,57.3,30.28,NNW,340,3.0,5.0,59,0.00,,OVC050,0.00,213.00,VWS V14.01,2013-01-23 16:45:00,
2013-01-23 11:48:00,72.9,57.8,30.28,ENE,60,8.0,8.0,59,0.00,,OVC,0.00,828.00,VWS V14.01,2013-01-23 16:48:00,
2013-01-23 11:50:00,73.3,58.1,30.28,NE,53,4.0,9.0,59,0.00,,OVC050,0.00,870.00,VWS V14.01,2013-01-23 16:50:00,
2013-01-23 11:53:00,74.0,55.3,30.27,ENE,78,8.0,9.0,52,0.00,,OVC,0.00,292.00,VWS V14.01,2013-01-23 16:53:00,
2013-01-23 11:55:00,74.0,54.7,30.27,ENE,76,5.0,8.0,51,0.00,,OVC050,0.00,308.00,VWS V14.01,2013-01-23 16:55:00,
2013-01-23 11:58:00,73.8,54.6,30.27,ESE,103,3.0,13.0,51,0.00,,OVC,0.00,636.00,VWS V14.01,2013-01-23 16:58:00,
2013-01-23 12:00:00,73.9,54.7,30.27,NE,55,9.0,12.0,51,0.00,,OVC050,0.00,636.00,VWS V14.01,2013-01-23 17:00:00,
2013-01-23 12:03:00,74.2,54.9,30.27,East,83,8.0,11.0,51,0.00,,OVC,0.00,643.00,VWS V14.01,2013-01-23 17:03:00,
2013-01-23 12:05:00,74.2,54.9,30.27,NNE,13,4.0,14.0,51,0.00,,OVC050,0.00,582.00,VWS V14.01,2013-01-23 17:05:00,
2013-01-23 12:08:00,73.8,54.0,30.27,East,82,6.0,15.0,50,0.00,,OVC,0.00,397.00,VWS V14.01,2013-01-23 17:08:00,
2013-01-23 12:10:00,73.5,54.3,30.27,NE,44,12.0,14.0,51,0.00,,OVC050,0.00,438.00,VWS V14.01,2013-01-23 17:10:00,
2013-01-23 12:13:00,73.2,54.5,30.27,East,79,9.0,12.0,52,0.00,,OVC,0.00,657.00,VWS V14.01,2013-01-23 17:13:00,
2013-01-23 12:15:00,73.3,54.1,30.27,NE,42,7.0,10.0,51,0.00,,OVC050,0.00,721.00,VWS V14.01,2013-01-23 17:15:00,
2013-01-23 12:18:00,73.7,54.5,30.27,ENE,58,9.0,13.0,51,0.00,,OVC,0.00,513.00,VWS V14.01,2013-01-23 17:18:00,
2013-01-23 12:20:00,73.7,54.5,30.27,NE,40,7.0,13.0,51,0.00,,OVC050,0.00,513.00,VWS V14.01,2013-01-23 17:20:00,
2013-01-23 12:23:00,73.6,54.4,30.27,ENE,60,5.0,13.0,51,0.00,,OVC,0.00,476.00,VWS V14.01,2013-01-23 17:23:00,
2013-01-23 12:25:00,73.7,54.5,30.27,NNE,28,7.0,12.0,51,0.00,,OVC050,0.00,476.00,VWS V14.01,2013-01-23 17:25:00,
2013-01-23 12:28:00,73.9,54.1,30.26,NNE,25,8.0,14.0,50,0.00,,OVC,0.00,809.00,VWS V14.01,2013-01-23 17:28:00,
2013-01-23 12:30:00,74.0,54.2,30.26,ENE,71,7.0,15.0,50,0.00,,OVC050,0.00,809.00,VWS V14.01,2013-01-23 17:30:00,
2013-01-23 12:33:00,74.3,54.5,30.27,NE,49,8.0,13.0,50,0.00,,OVC,0.00,823.00,VWS V14.01,2013-01-23 17:33:00,
2013-01-23 12:35:00,74.4,54.6,30.26,East,82,11.0,12.0,50,0.00,,OVC050,0.00,831.00,VWS V14.01,2013-01-23 17:35:00,
2013-01-23 12:38:00,74.6,54.8,30.27,ESE,112,4.0,12.0,50,0.00,,OVC,0.00,828.00,VWS V14.01,2013-01-23 17:38:00,
2013-01-23 12:40:00,74.7,54.8,30.27,East,101,5.0,9.0,50,0.00,,OVC050,0.00,826.00,VWS V14.01,2013-01-23 17:40:00,
2013-01-23 12:43:00,74.8,54.4,30.27,East,86,3.0,8.0,49,0.00,,OVC,0.00,675.00,VWS V14.01,2013-01-23 17:43:00,
2013-01-23 12:45:00,74.9,54.5,30.27,NNE,28,6.0,7.0,49,0.00,,OVC050,0.00,793.00,VWS V14.01,2013-01-23 17:45:00,
2013-01-23 12:48:00,75.3,54.8,30.27,ENE,67,4.0,9.0,49,0.00,,OVC,0.00,821.00,VWS V14.01,2013-01-23 17:48:00,
2013-01-23 12:50:00,75.5,55.0,30.26,ENE,69,4.0,7.0,49,0.00,,OVC050,0.00,860.00,VWS V14.01,2013-01-23 17:50:00,
2013-01-23 12:53:00,76.0,54.9,30.26,NE,38,2.0,10.0,48,0.00,,OVC,0.00,675.00,VWS V14.01,2013-01-23 17:53:00,
2013-01-23 12:55:00,76.0,54.3,30.26,East,87,11.0,11.0,47,0.00,,OVC050,0.00,668.00,VWS V14.01,2013-01-23 17:55:00,
2013-01-23 12:58:00,75.2,54.2,30.26,ENE,59,7.0,12.0,48,0.00,,OVC,0.00,916.00,VWS V14.01,2013-01-23 17:58:00,
2013-01-23 13:00:00,75.1,54.7,30.26,East,98,6.0,8.0,49,0.00,,OVC050,0.00,916.00,VWS V14.01,2013-01-23 18:00:00,
2013-01-23 13:03:00,75.5,55.6,30.26,NE,36,3.0,6.0,50,0.00,,OVC,0.00,919.00,VWS V14.01,2013-01-23 18:03:00,
2013-01-23 13:05:00,75.7,54.6,30.25,East,80,8.0,13.0,48,0.00,,OVC050,0.00,953.00,VWS V14.01,2013-01-23 18:05:00,
2013-01-23 13:08:00,75.5,55.0,30.25,ENE,77,8.0,10.0,49,0.00,,OVC,0.00,506.00,VWS V14.01,2013-01-23 18:08:00,
2013-01-23 13:10:00,75.2,53.6,30.25,NE,56,14.0,14.0,47,0.00,,OVC050,0.00,550.00,VWS V14.01,2013-01-23 18:10:00,
2013-01-23 13:13:00,74.6,54.2,30.25,ENE,60,7.0,12.0,49,0.00,,OVC,0.00,343.00,VWS V14.01,2013-01-23 18:13:00,
2013-01-23 13:15:00,74.3,53.9,30.25,ENE,64,5.0,12.0,49,0.00,,OVC050,0.00,415.00,VWS V14.01,2013-01-23 18:15:00,
2013-01-23 13:18:00,74.0,54.2,30.25,East,84,3.0,9.0,50,0.00,,OVC,0.00,439.00,VWS V14.01,2013-01-23 18:18:00,
2013-01-23 13:20:00,74.0,54.2,30.25,NNE,32,9.0,16.0,50,0.00,,OVC050,0.00,882.00,VWS V14.01,2013-01-23 18:20:00,
2013-01-23 13:23:00,74.0,53.7,30.25,NE,54,9.0,15.0,49,0.00,,OVC,0.00,279.00,VWS V14.01,2013-01-23 18:23:00,
2013-01-23 13:25:00,73.9,53.6,30.25,ENE,59,5.0,10.0,49,0.00,,OVC050,0.00,253.00,VWS V14.01,2013-01-23 18:25:00,
2013-01-23 13:28:00,73.3,54.1,30.25,ENE,71,7.0,11.0,51,0.00,,OVC,0.00,269.00,VWS V14.01,2013-01-23 18:28:00,
2013-01-23 13:30:00,73.3,54.1,30.24,ENE,57,3.0,10.0,51,0.00,,OVC050,0.00,269.00,VWS V14.01,2013-01-23 18:30:00,
2013-01-23 13:33:00,73.7,54.5,30.24,ENE,78,5.0,13.0,51,0.00,,OVC,0.00,269.00,VWS V14.01,2013-01-23 18:33:00,
2013-01-23 13:35:00,73.9,54.7,30.24,NE,49,5.0,13.0,51,0.00,,OVC050,0.00,269.00,VWS V14.01,2013-01-23 18:35:00,
2013-01-23 13:38:00,74.3,54.5,30.24,NE,51,14.0,14.0,50,0.00,,OVC,0.00,810.00,VWS V14.01,2013-01-23 18:38:00,
2013-01-23 13:40:00,74.3,55.0,30.24,ENE,65,3.0,16.0,51,0.00,,OVC050,0.00,810.00,VWS V14.01,2013-01-23 18:40:00,
2013-01-23 13:43:00,74.8,54.9,30.24,ENE,60,7.0,10.0,50,0.00,,OVC,0.00,821.00,VWS V14.01,2013-01-23 18:43:00,
2013-01-23 13:45:00,74.8,54.4,30.24,East,85,8.0,10.0,49,0.00,,OVC050,0.00,162.00,VWS V14.01,2013-01-23 18:45:00,
2013-01-23 13:48:00,74.0,55.3,30.24,NE,52,11.0,13.0,52,0.00,,OVC,0.00,146.00,VWS V14.01,2013-01-23 18:48:00,
2013-01-23 13:50:00,74.0,55.3,30.24,NE,38,6.0,12.0,52,0.00,,OVC050,0.00,819.00,VWS V14.01,2013-01-23 18:50:00,
2013-01-23 13:53:00,74.7,54.3,30.24,East,80,10.0,10.0,49,0.00,,OVC,0.00,831.00,VWS V14.01,2013-01-23 18:53:00,
2013-01-23 13:55:00,74.6,54.2,30.24,ENE,69,5.0,11.0,49,0.00,,OVC050,0.00,831.00,VWS V14.01,2013-01-23 18:55:00,
2013-01-23 13:58:00,74.3,54.5,30.24,NE,40,8.0,13.0,50,0.00,,OVC,0.00,831.00,VWS V14.01,2013-01-23 18:58:00,
2013-01-23 14:00:00,74.3,55.6,30.24,NE,51,4.0,13.0,52,0.00,,OVC050,0.00,786.00,VWS V14.01,2013-01-23 19:00:00,
2013-01-23 14:03:00,74.6,54.8,30.24,ENE,78,3.0,12.0,50,0.00,,OVC,0.00,722.00,VWS V14.01,2013-01-23 19:03:00,
2013-01-23 14:05:00,74.6,54.8,30.24,NE,40,9.0,10.0,50,0.00,,OVC050,0.00,812.00,VWS V14.01,2013-01-23 19:05:00,
2013-01-23 14:08:00,74.2,53.8,30.24,ENE,73,5.0,10.0,49,0.00,,OVC,0.00,733.00,VWS V14.01,2013-01-23 19:08:00,
2013-01-23 14:10:00,74.1,54.3,30.24,East,83,6.0,9.0,50,0.00,,OVC050,0.00,758.00,VWS V14.01,2013-01-23 19:10:00,
2013-01-23 14:13:00,74.2,53.8,30.24,NE,38,6.0,13.0,49,0.00,,OVC,0.00,770.00,VWS V14.01,2013-01-23 19:13:00,
2013-01-23 14:15:00,74.4,54.0,30.24,NE,52,9.0,9.0,49,0.00,,OVC050,0.00,763.00,VWS V14.01,2013-01-23 19:15:00,
2013-01-23 14:18:00,74.8,54.9,30.24,ENE,61,5.0,14.0,50,0.00,,OVC,0.00,148.00,VWS V14.01,2013-01-23 19:18:00,
2013-01-23 14:20:00,74.7,55.4,30.24,ENE,78,5.0,8.0,51,0.00,,OVC050,0.00,148.00,VWS V14.01,2013-01-23 19:20:00,
2013-01-23 14:23:00,74.3,55.6,30.24,NE,42,6.0,14.0,52,0.00,,OVC,0.00,740.00,VWS V14.01,2013-01-23 19:23:00,
2013-01-23 14:25:00,74.4,55.1,30.24,ENE,62,8.0,14.0,51,0.00,,OVC050,0.00,747.00,VWS V14.01,2013-01-23 19:25:00,
2013-01-23 14:28:00,74.6,55.3,30.24,NE,40,5.0,12.0,51,0.00,,OVC,0.00,788.00,VWS V14.01,2013-01-23 19:28:00,
2013-01-23 14:30:00,74.7,55.4,30.24,North,11,5.0,12.0,51,0.00,,OVC050,0.00,817.00,VWS V14.01,2013-01-23 19:30:00,
2013-01-23 14:33:00,75.2,54.8,30.24,NE,34,9.0,12.0,49,0.00,,OVC,0.00,805.00,VWS V14.01,2013-01-23 19:33:00,
2013-01-23 14:35:00,75.1,54.1,30.24,NE,51,7.0,12.0,48,0.00,,OVC050,0.00,805.00,VWS V14.01,2013-01-23 19:35:00,
2013-01-23 14:38:00,74.3,54.5,30.24,SE,127,5.0,7.0,50,0.00,,OVC,0.00,162.00,VWS V14.01,2013-01-23 19:38:00,
2013-01-23 14:40:00,74.1,54.3,30.24,NE,39,6.0,8.0,50,0.00,,OVC050,0.00,172.00,VWS V14.01,2013-01-23 19:40:00,
2013-01-23 14:43:00,74.1,54.8,30.24,NE,55,8.0,11.0,51,0.00,,OVC,0.00,740.00,VWS V14.01,2013-01-23 19:43:00,
2013-01-23 14:45:00,74.3,55.0,30.24,ENE,65,9.0,11.0,51,0.00,,OVC050,0.00,728.00,VWS V14.01,2013-01-23 19:45:00,
2013-01-23 14:48:00,74.5,54.7,30.24,NNE,30,6.0,11.0,50,0.00,,OVC,0.00,731.00,VWS V14.01,2013-01-23 19:48:00,
2013-01-23 14:50:00,74.4,54.0,30.24,NNE,25,2.0,9.0,49,0.00,,OVC050,0.00,241.00,VWS V14.01,2013-01-23 19:50:00,
2013-01-23 14:53:00,73.9,54.7,30.24,East,89,9.0,10.0,51,0.00,,OVC,0.00,633.00,VWS V14.01,2013-01-23 19:53:00,
2013-01-23 14:55:00,73.9,54.7,30.23,NE,52,8.0,10.0,51,0.00,,OVC050,0.00,656.00,VWS V14.01,2013-01-23 19:55:00,
2013-01-23 14:58:00,74.0,55.3,30.23,NE,46,5.0,10.0,52,0.00,,OVC,0.00,635.00,VWS V14.01,2013-01-23 19:58:00,
2013-01-23 15:00:00,74.2,55.5,30.23,NE,55,12.0,15.0,52,0.00,,OVC050,0.00,636.00,VWS V14.01,2013-01-23 20:00:00,
2013-01-23 15:03:00,74.3,55.0,30.23,East,84,7.0,8.0,51,0.00,,OVC,0.00,642.00,VWS V14.01,2013-01-23 20:03:00,
2013-01-23 15:05:00,74.3,55.0,30.24,East,93,6.0,7.0,51,0.00,,OVC050,0.00,128.00,VWS V14.01,2013-01-23 20:05:00,
2013-01-23 15:08:00,73.8,55.1,30.24,NE,42,5.0,13.0,52,0.00,,OVC,0.00,647.00,VWS V14.01,2013-01-23 20:08:00,
2013-01-23 15:10:00,73.9,55.7,30.24,East,87,6.0,8.0,53,0.00,,OVC050,0.00,652.00,VWS V14.01,2013-01-23 20:10:00,
2013-01-23 15:13:00,74.3,55.6,30.24,ESE,105,7.0,10.0,52,0.00,,OVC,0.00,645.00,VWS V14.01,2013-01-23 20:13:00,
2013-01-23 15:15:00,74.2,54.4,30.24,ENE,63,10.0,10.0,50,0.00,,OVC050,0.00,645.00,VWS V14.01,2013-01-23 20:15:00,
2013-01-23 15:18:00,73.6,54.4,30.24,ENE,61,8.0,12.0,51,0.00,,OVC,0.00,114.00,VWS V14.01,2013-01-23 20:18:00,
2013-01-23 15:20:00,73.3,54.6,30.24,NE,49,6.0,13.0,52,0.00,,OVC050,0.00,116.00,VWS V14.01,2013-01-23 20:20:00,
2013-01-23 15:23:00,72.7,54.6,30.24,ENE,74,5.0,7.0,53,0.00,,OVC,0.00,162.00,VWS V14.01,2013-01-23 20:23:00,
2013-01-23 15:25:00,72.6,54.5,30.24,NE,44,7.0,10.0,53,0.00,,OVC050,0.00,357.00,VWS V14.01,2013-01-23 20:25:00,
2013-01-23 15:28:00,72.9,55.3,30.24,East,93,3.0,9.0,54,0.00,,OVC,0.00,606.00,VWS V14.01,2013-01-23 20:28:00,
2013-01-23 15:30:00,73.3,55.7,30.24,NE,38,5.0,7.0,54,0.00,,OVC050,0.00,575.00,VWS V14.01,2013-01-23 20:30:00,
2013-01-23 15:33:00,73.9,54.7,30.24,NE,49,10.0,11.0,51,0.00,,OVC,0.00,515.00,VWS V14.01,2013-01-23 20:33:00,
2013-01-23 15:35:00,73.9,54.7,30.24,ENE,78,8.0,10.0,51,0.00,,OVC050,0.00,114.00,VWS V14.01,2013-01-23 20:35:00,
2013-01-23 15:38:00,73.3,53.6,30.24,ENE,64,3.0,9.0,50,0.00,,OVC,0.00,132.00,VWS V14.01,2013-01-23 20:38:00,
2013-01-23 15:40:00,73.0,53.8,30.24,NE,53,7.0,7.0,51,0.00,,OVC050,0.00,146.00,VWS V14.01,2013-01-23 20:40:00,
2013-01-23 15:43:00,72.7,54.6,30.24,ENE,65,4.0,7.0,53,0.00,,OVC,0.00,552.00,VWS V14.01,2013-01-23 20:43:00,
2013-01-23 15:45:00,72.9,54.8,30.24,NE,53,11.0,13.0,53,0.00,,OVC050,0.00,545.00,VWS V14.01,2013-01-23 20:45:00,
2013-01-23 15:48:00,73.5,54.3,30.24,ENE,61,8.0,12.0,51,0.00,,OVC,0.00,510.00,VWS V14.01,2013-01-23 20:48:00,
2013-01-23 15:50:00,73.6,54.4,30.24,NE,52,7.0,11.0,51,0.00,,OVC050,0.00,510.00,VWS V14.01,2013-01-23 20:50:00,
2013-01-23 15:53:00,73.4,54.2,30.24,NNE,22,2.0,14.0,51,0.00,,OVC,0.00,146.00,VWS V14.01,2013-01-23 20:53:00,
2013-01-23 15:55:00,73.2,54.5,30.24,ENE,63,5.0,5.0,52,0.00,,OVC050,0.00,142.00,VWS V14.01,2013-01-23 20:55:00,
2013-01-23 15:58:00,72.9,54.8,30.24,ENE,75,3.0,8.0,53,0.00,,OVC,0.00,490.00,VWS V14.01,2013-01-23 20:58:00,
2013-01-23 16:00:00,73.1,55.5,30.24,SE,125,5.0,8.0,54,0.00,,OVC050,0.00,492.00,VWS V14.01,2013-01-23 21:00:00,
2013-01-23 16:03:00,73.4,54.7,30.24,ENE,61,7.0,15.0,52,0.00,,OVC,0.00,475.00,VWS V14.01,2013-01-23 21:03:00,
2013-01-23 16:05:00,73.4,54.7,30.24,ENE,66,4.0,8.0,52,0.00,,OVC050,0.00,439.00,VWS V14.01,2013-01-23 21:05:00,
2013-01-23 16:08:00,73.2,54.0,30.24,NE,35,4.0,11.0,51,0.00,,OVC,0.00,90.00,VWS V14.01,2013-01-23 21:08:00,
2013-01-23 16:10:00,72.9,54.3,30.25,NE,50,4.0,8.0,52,0.00,,OVC050,0.00,86.00,VWS V14.01,2013-01-23 21:10:00,
2013-01-23 16:13:00,72.3,54.2,30.24,ENE,58,8.0,12.0,53,0.00,,OVC,0.00,121.00,VWS V14.01,2013-01-23 21:13:00,
2013-01-23 16:15:00,72.1,53.5,30.24,East,86,5.0,11.0,52,0.00,,OVC050,0.00,181.00,VWS V14.01,2013-01-23 21:15:00,
2013-01-23 16:18:00,71.9,53.9,30.24,NE,45,4.0,8.0,53,0.00,,OVC,0.00,179.00,VWS V14.01,2013-01-23 21:18:00,
2013-01-23 16:20:00,71.9,53.9,30.24,NE,55,8.0,9.0,53,0.00,,OVC050,0.00,374.00,VWS V14.01,2013-01-23 21:20:00,
2013-01-23 16:23:00,72.1,53.5,30.25,ENE,67,2.0,11.0,52,0.00,,OVC,0.00,360.00,VWS V14.01,2013-01-23 21:23:00,
2013-01-23 16:25:00,72.2,53.6,30.24,ENE,63,5.0,5.0,52,0.00,,OVC050,0.00,359.00,VWS V14.01,2013-01-23 21:25:00,
2013-01-23 16:28:00,72.6,54.0,30.24,ENE,73,7.0,7.0,52,0.00,,OVC,0.00,338.00,VWS V14.01,2013-01-23 21:28:00,
2013-01-23 16:30:00,72.7,54.1,30.24,ESE,111,4.0,8.0,52,0.00,,OVC050,0.00,329.00,VWS V14.01,2013-01-23 21:30:00,
2013-01-23 16:33:00,72.6,53.5,30.24,NE,55,4.0,11.0,51,0.00,,OVC,0.00,299.00,VWS V14.01,2013-01-23 21:33:00,
2013-01-23 16:35:00,72.6,53.5,30.24,ENE,77,8.0,15.0,51,0.00,,OVC050,0.00,292.00,VWS V14.01,2013-01-23 21:35:00,
2013-01-23 16:38:00,72.4,53.8,30.24,NE,40,5.0,11.0,52,0.00,,OVC,0.00,206.00,VWS V14.01,2013-01-23 21:38:00,
2013-01-23 16:40:00,72.2,53.1,30.24,ENE,67,3.0,11.0,51,0.00,,OVC050,0.00,229.00,VWS V14.01,2013-01-23 21:40:00,
2013-01-23 16:43:00,71.8,53.2,30.24,NE,50,3.0,7.0,52,0.00,,OVC,0.00,53.00,VWS V14.01,2013-01-23 21:43:00,
2013-01-23 16:45:00,71.7,53.2,30.24,ENE,77,4.0,8.0,52,0.00,,OVC050,0.00,244.00,VWS V14.01,2013-01-23 21:45:00,
2013-01-23 16:48:00,71.5,53.5,30.24,NE,49,4.0,8.0,53,0.00,,OVC,0.00,225.00,VWS V14.01,2013-01-23 21:48:00,
2013-01-23 16:50:00,71.6,53.6,30.25,NNE,27,3.0,10.0,53,0.00,,OVC050,0.00,144.00,VWS V14.01,2013-01-23 21:50:00,
2013-01-23 16:53:00,71.4,52.9,30.25,NE,52,9.0,14.0,52,0.00,,OVC,0.00,206.00,VWS V14.01,2013-01-23 21:53:00,
2013-01-23 16:55:00,71.3,53.3,30.25,NE,43,4.0,9.0,53,0.00,,OVC050,0.00,202.00,VWS V14.01,2013-01-23 21:55:00,
2013-01-23 16:58:00,71.3,53.3,30.25,NE,44,7.0,10.0,53,0.00,,OVC,0.00,185.00,VWS V14.01,2013-01-23 21:58:00,
2013-01-23 17:00:00,71.3,53.8,30.25,NNE,30,3.0,12.0,54,0.00,,OVC050,0.00,183.00,VWS V14.01,2013-01-23 22:00:00,
2013-01-23 17:03:00,71.2,53.7,30.25,ENE,67,8.0,10.0,54,0.00,,OVC,0.00,162.00,VWS V14.01,2013-01-23 22:03:00,
2013-01-23 17:05:00,71.2,53.7,30.25,ENE,66,3.0,10.0,54,0.00,,OVC050,0.00,158.00,VWS V14.01,2013-01-23 22:05:00,
2013-01-23 17:08:00,71.2,54.2,30.25,East,90,6.0,10.0,55,0.00,,OVC,0.00,141.00,VWS V14.01,2013-01-23 22:08:00,
2013-01-23 17:10:00,71.2,53.2,30.25,ENE,65,10.0,13.0,53,0.00,,OVC050,0.00,132.00,VWS V14.01,2013-01-23 22:10:00,
2013-01-23 17:13:00,71.0,53.5,30.25,NE,51,8.0,9.0,54,0.00,,OVC,0.00,70.00,VWS V14.01,2013-01-23 22:13:00,
2013-01-23 17:15:00,70.9,53.4,30.25,ENE,74,4.0,9.0,54,0.00,,OVC050,0.00,42.00,VWS V14.01,2013-01-23 22:15:00,
2013-01-23 17:18:00,70.8,53.8,30.25,ENE,76,7.0,7.0,55,0.00,,OVC,0.00,35.00,VWS V14.01,2013-01-23 22:18:00,
2013-01-23 17:20:00,70.8,53.8,30.25,NE,44,5.0,10.0,55,0.00,,OVC050,0.00,33.00,VWS V14.01,2013-01-23 22:20:00,
2013-01-23 17:23:00,70.6,53.7,30.25,NE,43,4.0,12.0,55,0.00,,OVC,0.00,32.00,VWS V14.01,2013-01-23 22:23:00,
2013-01-23 17:25:00,70.6,53.7,30.25,NE,43,3.0,9.0,55,0.00,,OVC050,0.00,30.00,VWS V14.01,2013-01-23 22:25:00,
2013-01-23 17:28:00,70.4,53.5,30.25,ENE,69,4.0,12.0,55,0.00,,OVC,0.00,28.00,VWS V14.01,2013-01-23 22:28:00,
2013-01-23 17:30:00,70.4,53.5,30.25,ENE,65,9.0,9.0,55,0.00,,OVC050,0.00,26.00,VWS V14.01,2013-01-23 22:30:00,
2013-01-23 17:33:00,70.3,53.9,30.25,NE,38,4.0,10.0,56,0.00,,OVC,0.00,23.00,VWS V14.01,2013-01-23 22:33:00,
2013-01-23 17:35:00,70.3,53.9,30.25,ENE,57,10.0,10.0,56,0.00,,OVC050,0.00,23.00,VWS V14.01,2013-01-23 22:35:00,
2013-01-23 17:38:00,70.2,53.8,30.25,ENE,68,5.0,8.0,56,0.00,,OVC,0.00,19.00,VWS V14.01,2013-01-23 22:38:00,
2013-01-23 17:40:00,70.1,53.7,30.25,NE,51,4.0,7.0,56,0.00,,OVC050,0.00,19.00,VWS V14.01,2013-01-23 22:40:00,
2013-01-23 17:43:00,70.0,54.1,30.25,ENE,59,4.0,7.0,57,0.00,,OVC,0.00,16.00,VWS V14.01,2013-01-23 22:43:00,
2013-01-23 17:45:00,70.0,54.1,30.25,East,89,3.0,7.0,57,0.00,,OVC050,0.00,16.00,VWS V14.01,2013-01-23 22:45:00,
2013-01-23 17:48:00,69.8,53.9,30.25,East,84,3.0,8.0,57,0.00,,OVC,0.00,12.00,VWS V14.01,2013-01-23 22:48:00,
2013-01-23 17:50:00,69.8,53.9,30.25,ENE,70,3.0,11.0,57,0.00,,OVC050,0.00,11.00,VWS V14.01,2013-01-23 22:50:00,
2013-01-23 17:53:00,69.6,54.2,30.25,ENE,64,5.0,8.0,58,0.00,,OVC,0.00,7.00,VWS V14.01,2013-01-23 22:53:00,
2013-01-23 17:55:00,69.6,54.2,30.25,East,86,7.0,8.0,58,0.00,,OVC050,0.00,5.00,VWS V14.01,2013-01-23 22:55:00,
2013-01-23 17:58:00,69.5,54.1,30.25,NE,48,4.0,8.0,58,0.00,,OVC,0.00,0.00,VWS V14.01,2013-01-23 22:58:00,
2013-01-23 18:00:00,69.4,54.0,30.25,NE,49,2.0,4.0,58,0.00,,OVC050,0.00,0.00,VWS V14.01,2013-01-23 23:00:00,
2013-01-23 18:03:00,69.3,53.9,30.25,NE,38,5.0,7.0,58,0.00,,OVC,0.00,0.00,VWS V14.01,2013-01-23 23:03:00,
2013-01-23 18:05:00,69.2,53.8,30.25,NE,34,4.0,5.0,58,0.00,,OVC050,0.00,0.00,VWS V14.01,2013-01-23 23:05:00,
2013-01-23 18:08:00,69.1,53.7,30.25,ENE,74,8.0,8.0,58,0.00,,OVC,0.00,0.00,VWS V14.01,2013-01-23 23:08:00,
2013-01-23 18:10:00,69.0,53.6,30.26,NE,54,7.0,8.0,58,0.00,,OVC050,0.00,0.00,VWS V14.01,2013-01-23 23:10:00,
2013-01-23 18:13:00,69.0,53.6,30.26,NE,46,7.0,9.0,58,0.00,,OVC,0.00,0.00,VWS V14.01,2013-01-23 23:13:00,
2013-01-23 18:15:00,68.9,53.5,30.26,ENE,58,3.0,7.0,58,0.00,,OVC050,0.00,0.00,VWS V14.01,2013-01-23 23:15:00,
2013-01-23 18:18:00,68.9,54.0,30.26,ENE,57,1.0,5.0,59,0.00,,OVC,0.00,0.00,VWS V14.01,2013-01-23 23:18:00,
2013-01-23 18:20:00,68.8,53.9,30.26,ENE,64,1.0,3.0,59,0.00,,OVC050,0.00,0.00,VWS V14.01,2013-01-23 23:20:00,
2013-01-23 18:23:00,68.7,53.8,30.26,NE,43,5.0,5.0,59,0.00,,OVC,0.00,0.00,VWS V14.01,2013-01-23 23:23:00,
2013-01-23 18:25:00,68.6,53.7,30.26,NE,54,3.0,5.0,59,0.00,,OVC050,0.00,0.00,VWS V14.01,2013-01-23 23:25:00,
2013-01-23 18:28:00,68.5,53.6,30.26,NE,47,2.0,3.0,59,0.00,,OVC,0.00,0.00,VWS V14.01,2013-01-23 23:28:00,
2013-01-23 18:30:00,68.5,53.6,30.26,NE,45,2.0,3.0,59,0.00,,OVC050,0.00,0.00,VWS V14.01,2013-01-23 23:30:00,
2013-01-23 18:33:00,68.3,53.9,30.26,NE,50,1.0,3.0,60,0.00,,OVC,0.00,0.00,VWS V14.01,2013-01-23 23:33:00,
2013-01-23 18:35:00,68.2,53.8,30.26,NE,50,1.0,2.0,60,0.00,,OVC050,0.00,0.00,VWS V14.01,2013-01-23 23:35:00,
2013-01-23 18:38:00,67.9,53.5,30.26,ENE,57,2.0,3.0,60,0.00,,OVC,0.00,0.00,VWS V14.01,2013-01-23 23:38:00,
2013-01-23 18:40:00,67.9,54.0,30.26,ENE,62,2.0,3.0,61,0.00,,OVC050,0.00,0.00,VWS V14.01,2013-01-23 23:40:00,
2013-01-23 18:43:00,67.7,53.3,30.26,NE,48,3.0,4.0,60,0.00,,OVC,0.00,0.00,VWS V14.01,2013-01-23 23:43:00,
2013-01-23 18:45:00,67.7,53.8,30.26,ENE,63,2.0,4.0,61,0.00,,OVC050,0.00,0.00,VWS V14.01,2013-01-23 23:45:00,
2013-01-23 18:48:00,67.7,53.8,30.26,ENE,57,2.0,4.0,61,0.00,,OVC,0.00,0.00,VWS V14.01,2013-01-23 23:48:00,
2013-01-23 18:50:00,67.7,53.8,30.26,ENE,59,1.0,3.0,61,0.00,,OVC050,0.00,0.00,VWS V14.01,2013-01-23 23:50:00,
2013-01-23 18:53:00,67.7,53.8,30.26,NE,51,2.0,4.0,61,0.00,,OVC,0.00,0.00,VWS V14.01,2013-01-23 23:53:00,
2013-01-23 18:55:00,67.6,53.7,30.26,NE,51,2.0,3.0,61,0.00,,OVC050,0.00,0.00,VWS V14.01,2013-01-23 23:55:00,
2013-01-23 18:58:00,67.5,53.6,30.26,NE,46,2.0,3.0,61,0.00,,OVC,0.00,0.00,VWS V14.01,2013-01-23 23:58:00,
2013-01-23 19:00:00,67.4,53.5,30.26,NE,46,1.0,2.0,61,0.00,,OVC050,0.00,0.00,VWS V14.01,2013-01-24 00:00:00,
2013-01-23 19:03:00,67.3,53.8,30.26,NE,51,2.0,3.0,62,0.00,,OVC,0.00,0.00,VWS V14.01,2013-01-24 00:03:00,
2013-01-23 19:05:00,67.2,53.8,30.26,ENE,78,2.0,5.0,62,0.00,,OVC050,0.00,0.00,VWS V14.01,2013-01-24 00:05:00,
2013-01-23 19:08:00,67.1,53.7,30.26,ENE,67,1.0,2.0,62,0.00,,OVC,0.00,0.00,VWS V14.01,2013-01-24 00:08:00,
2013-01-23 19:10:00,67.1,53.7,30.27,ENE,67,1.0,2.0,62,0.00,,OVC050,0.00,0.00,VWS V14.01,2013-01-24 00:10:00,
2013-01-23 19:13:00,66.9,53.5,30.27,ENE,68,2.0,3.0,62,0.00,,OVC,0.00,0.00,VWS V14.01,2013-01-24 00:13:00,
2013-01-23 19:15:00,66.9,53.5,30.27,ENE,68,3.0,3.0,62,0.00,,OVC050,0.00,0.00,VWS V14.01,2013-01-24 00:15:00,
2013-01-23 19:18:00,66.9,53.5,30.27,NE,42,1.0,3.0,62,0.00,,OVC,0.00,0.00,VWS V14.01,2013-01-24 00:18:00,
2013-01-23 19:20:00,66.8,53.4,30.27,ENE,57,2.0,3.0,62,0.00,,OVC050,0.00,0.00,VWS V14.01,2013-01-24 00:20:00,
2013-01-23 19:23:00,66.8,53.8,30.27,ENE,57,1.0,2.0,63,0.00,,OVC,0.00,0.00,VWS V14.01,2013-01-24 00:23:00,
2013-01-23 19:25:00,66.8,53.8,30.27,NE,47,1.0,4.0,63,0.00,,OVC050,0.00,0.00,VWS V14.01,2013-01-24 00:25:00,
2013-01-23 19:28:00,66.8,53.8,30.27,NE,51,1.0,2.0,63,0.00,,OVC,0.00,0.00,VWS V14.01,2013-01-24 00:28:00,
2013-01-23 19:30:00,66.8,53.8,30.27,NE,51,2.0,2.0,63,0.00,,OVC050,0.00,0.00,VWS V14.01,2013-01-24 00:30:00,
2013-01-23 19:33:00,66.8,53.8,30.27,NE,51,1.0,2.0,63,0.00,,OVC,0.00,0.00,VWS V14.01,2013-01-24 00:33:00,
2013-01-23 19:35:00,66.7,53.7,30.27,NE,51,1.0,2.0,63,0.00,,OVC050,0.00,0.00,VWS V14.01,2013-01-24 00:35:00,
2013-01-23 19:38:00,66.5,54.0,30.27,NE,51,1.0,2.0,64,0.00,,OVC,0.00,0.00,VWS V14.01,2013-01-24 00:38:00,
2013-01-23 19:40:00,66.5,54.0,30.27,NE,51,1.0,2.0,64,0.00,,OVC050,0.00,0.00,VWS V14.01,2013-01-24 00:40:00,
2013-01-23 19:43:00,66.3,53.8,30.27,NE,51,1.0,1.0,64,0.00,,OVC,0.00,0.00,VWS V14.01,2013-01-24 00:43:00,
2013-01-23 19:45:00,66.2,53.7,30.27,NE,51,2.0,2.0,64,0.00,,OVC050,0.00,0.00,VWS V14.01,2013-01-24 00:45:00,
2013-01-23 19:48:00,66.1,54.0,30.27,NE,51,1.0,2.0,65,0.00,,OVC,0.00,0.00,VWS V14.01,2013-01-24 00:48:00,
2013-01-23 19:50:00,66.1,54.0,30.27,NE,51,0.0,2.0,65,0.00,,OVC050,0.00,0.00,VWS V14.01,2013-01-24 00:50:00,
2013-01-23 19:53:00,66.0,53.5,30.27,NE,51,0.0,0.0,64,0.00,,OVC,0.00,0.00,VWS V14.01,2013-01-24 00:53:00,
2013-01-23 19:55:00,65.9,53.8,30.27,NE,51,0.0,0.0,65,0.00,,OVC050,0.00,0.00,VWS V14.01,2013-01-24 00:55:00,
2013-01-23 19:58:00,65.6,53.5,30.27,NE,51,0.0,1.0,65,0.00,,OVC,0.00,0.00,VWS V14.01,2013-01-24 00:58:00,
2013-01-23 20:00:00,65.5,53.4,30.27,NE,51,0.0,1.0,65,0.00,,OVC050,0.00,0.00,VWS V14.01,2013-01-24 01:00:00,
2013-01-23 20:03:00,65.1,53.5,30.27,NE,51,0.0,0.0,66,0.00,,OVC,0.00,0.00,VWS V14.01,2013-01-24 01:03:00,
2013-01-23 20:05:00,65.0,53.8,30.27,NE,51,0.0,0.0,67,0.00,,OVC050,0.00,0.00,VWS V14.01,2013-01-24 01:05:00,
2013-01-23 20:08:00,64.8,53.6,30.27,NE,51,0.0,0.0,67,0.00,,OVC,0.00,0.00,VWS V14.01,2013-01-24 01:08:00,
2013-01-23 20:10:00,64.7,53.5,30.27,NE,51,0.0,0.0,67,0.00,,OVC050,0.00,0.00,VWS V14.01,2013-01-24 01:10:00,
2013-01-23 20:13:00,64.4,53.2,30.27,NE,51,0.0,0.0,67,0.00,,OVC,0.00,0.00,VWS V14.01,2013-01-24 01:13:00,
2013-01-23 20:15:00,64.3,53.1,30.27,NE,51,1.0,2.0,67,0.00,,OVC050,0.00,0.00,VWS V14.01,2013-01-24 01:15:00,
2013-01-23 20:18:00,64.1,53.3,30.27,NE,51,1.0,1.0,68,0.00,,OVC,0.00,0.00,VWS V14.01,2013-01-24 01:18:00,
2013-01-23 20:20:00,64.1,53.3,30.27,NE,51,1.0,2.0,68,0.00,,OVC050,0.00,0.00,VWS V14.01,2013-01-24 01:20:00,
2013-01-23 20:23:00,64.1,53.3,30.27,NE,51,1.0,1.0,68,0.00,,OVC,0.00,0.00,VWS V14.01,2013-01-24 01:23:00,
2013-01-23 20:25:00,64.1,53.3,30.28,NE,51,0.0,1.0,68,0.00,,OVC050,0.00,0.00,VWS V14.01,2013-01-24 01:25:00,
2013-01-23 20:28:00,64.1,53.7,30.28,NE,51,0.0,0.0,69,0.00,,OVC,0.00,0.00,VWS V14.01,2013-01-24 01:28:00,
2013-01-23 20:30:00,64.2,53.4,30.28,NE,51,0.0,0.0,68,0.00,,OVC050,0.00,0.00,VWS V14.01,2013-01-24 01:30:00,
2013-01-23 20:33:00,64.2,53.4,30.28,NE,51,0.0,0.0,68,0.00,,OVC,0.00,0.00,VWS V14.01,2013-01-24 01:33:00,
2013-01-23 20:35:00,64.2,53.4,30.28,NE,51,0.0,0.0,68,0.00,,OVC050,0.00,0.00,VWS V14.01,2013-01-24 01:35:00,
2013-01-23 20:38:00,64.0,53.2,30.28,NE,51,0.0,0.0,68,0.00,,OVC,0.00,0.00,VWS V14.01,2013-01-24 01:38:00,
2013-01-23 20:40:00,64.0,53.2,30.28,NE,51,0.0,0.0,68,0.00,,OVC050,0.00,0.00,VWS V14.01,2013-01-24 01:40:00,
2013-01-23 20:43:00,63.6,52.9,30.28,NE,51,0.0,1.0,68,0.00,,OVC,0.00,0.00,VWS V14.01,2013-01-24 01:43:00,
2013-01-23 20:45:00,63.5,52.8,30.28,NE,51,0.0,1.0,68,0.00,,OVC050,0.00,0.00,VWS V14.01,2013-01-24 01:45:00,
2013-01-23 20:48:00,63.2,52.9,30.28,NE,51,0.0,0.0,69,0.00,,OVC,0.00,0.00,VWS V14.01,2013-01-24 01:48:00,
2013-01-23 20:50:00,63.1,52.8,30.28,NE,51,0.0,0.0,69,0.00,,OVC050,0.00,0.00,VWS V14.01,2013-01-24 01:50:00,
2013-01-23 20:53:00,62.9,53.0,30.28,NE,51,0.0,0.0,70,0.00,,OVC,0.00,0.00,VWS V14.01,2013-01-24 01:53:00,
2013-01-23 20:55:00,62.8,52.9,30.28,NE,51,0.0,0.0,70,0.00,,OVC050,0.00,0.00,VWS V14.01,2013-01-24 01:55:00,
2013-01-23 20:58:00,62.6,53.1,30.28,NE,51,0.0,0.0,71,0.00,,OVC,0.00,0.00,VWS V14.01,2013-01-24 01:58:00,
2013-01-23 21:00:00,62.5,53.0,30.28,NE,51,0.0,0.0,71,0.00,,OVC050,0.00,0.00,VWS V14.01,2013-01-24 02:00:00,
2013-01-23 21:03:00,62.3,53.2,30.28,NE,51,0.0,0.0,72,0.00,,OVC,0.00,0.00,VWS V14.01,2013-01-24 02:03:00,
2013-01-23 21:05:00,62.3,53.2,30.28,NE,51,0.0,0.0,72,0.00,,OVC050,0.00,0.00,VWS V14.01,2013-01-24 02:05:00,
2013-01-23 21:08:00,62.3,53.2,30.28,NE,51,0.0,0.0,72,0.00,,OVC,0.00,0.00,VWS V14.01,2013-01-24 02:08:00,
2013-01-23 21:10:00,62.3,53.2,30.28,NE,51,0.0,0.0,72,0.00,,OVC050,0.00,0.00,VWS V14.01,2013-01-24 02:10:00,
2013-01-23 21:13:00,62.1,53.0,30.28,NE,51,0.0,0.0,72,0.00,,OVC,0.00,0.00,VWS V14.01,2013-01-24 02:13:00,
2013-01-23 21:15:00,62.1,53.0,30.28,NE,51,0.0,0.0,72,0.00,,OVC050,0.00,0.00,VWS V14.01,2013-01-24 02:15:00,
2013-01-23 21:18:00,62.0,52.9,30.28,NE,51,0.0,0.0,72,0.00,,OVC,0.00,0.00,VWS V14.01,2013-01-24 02:18:00,
2013-01-23 21:20:00,61.9,52.8,30.29,NE,51,0.0,0.0,72,0.00,,OVC050,0.00,0.00,VWS V14.01,2013-01-24 02:20:00,
2013-01-23 21:23:00,61.8,53.1,30.29,NE,51,0.0,0.0,73,0.00,,OVC,0.00,0.00,VWS V14.01,2013-01-24 02:23:00,
2013-01-23 21:25:00,61.8,53.1,30.29,NE,51,0.0,0.0,73,0.00,,OVC050,0.00,0.00,VWS V14.01,2013-01-24 02:25:00,
2013-01-23 21:28:00,61.8,53.1,30.29,NE,51,0.0,0.0,73,0.00,,OVC,0.00,0.00,VWS V14.01,2013-01-24 02:28:00,
2013-01-23 21:30:00,61.8,53.1,30.29,NE,51,0.0,1.0,73,0.00,,OVC050,0.00,0.00,VWS V14.01,2013-01-24 02:30:00,
2013-01-23 21:33:00,61.7,53.0,30.29,NE,51,0.0,0.0,73,0.00,,OVC,0.00,0.00,VWS V14.01,2013-01-24 02:33:00,
2013-01-23 21:35:00,61.7,53.3,30.29,NE,51,0.0,0.0,74,0.00,,OVC050,0.00,0.00,VWS V14.01,2013-01-24 02:35:00,
2013-01-23 21:38:00,61.5,53.2,30.29,NE,51,0.0,0.0,74,0.00,,OVC,0.00,0.00,VWS V14.01,2013-01-24 02:38:00,
2013-01-23 21:40:00,61.4,53.0,30.29,NE,51,0.0,0.0,74,0.00,,OVC050,0.00,0.00,VWS V14.01,2013-01-24 02:40:00,
2013-01-23 21:43:00,61.2,53.2,30.29,NE,51,3.0,3.0,75,0.00,,OVC,0.00,0.00,VWS V14.01,2013-01-24 02:43:00,
2013-01-23 21:45:00,61.2,53.2,30.29,NE,35,1.0,3.0,75,0.00,,OVC050,0.00,0.00,VWS V14.01,2013-01-24 02:45:00,
2013-01-23 21:48:00,61.2,53.2,30.29,NE,34,2.0,2.0,75,0.00,,OVC,0.00,0.00,VWS V14.01,2013-01-24 02:48:00,
2013-01-23 21:50:00,61.3,53.3,30.29,NNE,16,2.0,3.0,75,0.00,,OVC050,0.00,0.00,VWS V14.01,2013-01-24 02:50:00,
2013-01-23 21:53:00,61.5,54.2,30.29,North,360,1.0,3.0,77,0.00,,OVC,0.00,0.00,VWS V14.01,2013-01-24 02:53:00,
2013-01-23 21:55:00,61.7,54.4,30.29,NNW,329,1.0,3.0,77,0.00,,OVC050,0.00,0.00,VWS V14.01,2013-01-24 02:55:00,
2013-01-23 21:58:00,62.1,55.5,30.29,NNW,344,1.0,6.0,79,0.00,,OVC,0.00,0.00,VWS V14.01,2013-01-24 02:58:00,
2013-01-23 22:00:00,62.2,55.6,30.29,NNW,344,1.0,3.0,79,0.00,,OVC050,0.00,0.00,VWS V14.01,2013-01-24 03:00:00,
2013-01-23 22:03:00,62.3,55.7,30.29,NNW,338,2.0,3.0,79,0.00,,OVC,0.00,0.00,VWS V14.01,2013-01-24 03:03:00,
2013-01-23 22:05:00,62.4,56.2,30.29,NNW,338,0.0,4.0,80,0.00,,OVC050,0.00,0.00,VWS V14.01,2013-01-24 03:05:00,
2013-01-23 22:08:00,62.4,56.2,30.29,NNW,344,1.0,3.0,80,0.00,,OVC,0.00,0.00,VWS V14.01,2013-01-24 03:08:00,
2013-01-23 22:10:00,62.4,56.5,30.29,NNW,348,5.0,5.0,81,0.00,,OVC050,0.00,0.00,VWS V14.01,2013-01-24 03:10:00,
2013-01-23 22:13:00,62.4,56.5,30.30,North,355,1.0,3.0,81,0.00,,OVC,0.00,0.00,VWS V14.01,2013-01-24 03:13:00,
2013-01-23 22:15:00,62.4,56.5,30.30,NNW,345,2.0,4.0,81,0.00,,OVC050,0.00,0.00,VWS V14.01,2013-01-24 03:15:00,
2013-01-23 22:18:00,62.4,56.5,30.30,NNW,345,1.0,4.0,81,0.00,,OVC,0.00,0.00,VWS V14.01,2013-01-24 03:18:00,
2013-01-23 22:20:00,62.4,56.5,30.30,NNW,345,1.0,2.0,81,0.00,,OVC050,0.00,0.00,VWS V14.01,2013-01-24 03:20:00,
2013-01-23 22:23:00,62.3,56.7,30.29,North,349,1.0,2.0,82,0.00,,OVC,0.00,0.00,VWS V14.01,2013-01-24 03:23:00,
2013-01-23 22:25:00,62.3,56.7,30.29,North,349,1.0,2.0,82,0.00,,OVC050,0.00,0.00,VWS V14.01,2013-01-24 03:25:00,
2013-01-23 22:28:00,62.2,56.6,30.29,North,349,3.0,3.0,82,0.00,,OVC,0.00,0.00,VWS V14.01,2013-01-24 03:28:00,
2013-01-23 22:30:00,62.2,56.7,30.29,North,349,1.0,3.0,82,0.00,,OVC050,0.00,0.00,VWS V14.01,2013-01-24 03:30:00,
2013-01-23 22:33:00,62.0,56.5,30.29,North,349,2.0,2.0,82,0.00,,OVC,0.00,0.00,VWS V14.01,2013-01-24 03:33:00,
2013-01-23 22:35:00,62.0,56.8,30.29,North,349,1.0,2.0,83,0.00,,OVC050,0.00,0.00,VWS V14.01,2013-01-24 03:35:00,
2013-01-23 22:38:00,61.9,56.7,30.29,North,349,1.0,2.0,83,0.00,,OVC,0.00,0.00,VWS V14.01,2013-01-24 03:38:00,
2013-01-23 22:40:00,61.9,56.7,30.29,North,349,2.0,2.0,83,0.00,,OVC050,0.00,0.00,VWS V14.01,2013-01-24 03:40:00,
2013-01-23 22:43:00,61.9,57.0,30.29,North,349,2.0,3.0,84,0.00,,OVC,0.00,0.00,VWS V14.01,2013-01-24 03:43:00,
2013-01-23 22:45:00,61.9,56.7,30.29,NNW,341,4.0,5.0,83,0.00,,OVC050,0.00,0.00,VWS V14.01,2013-01-24 03:45:00,
2013-01-23 22:48:00,61.8,56.6,30.29,NNW,341,0.0,2.0,83,0.00,,OVC,0.00,0.00,VWS V14.01,2013-01-24 03:48:00,
2013-01-23 22:50:00,61.8,56.6,30.29,NNW,341,0.0,1.0,83,0.00,,OVC050,0.00,0.00,VWS V14.01,2013-01-24 03:50:00,
2013-01-23 22:53:00,61.6,56.7,30.29,NNW,341,2.0,2.0,84,0.00,,OVC,0.00,0.00,VWS V14.01,2013-01-24 03:53:00,
2013-01-23 22:55:00,61.6,56.7,30.29,NNW,341,2.0,2.0,84,0.00,,OVC050,0.00,0.00,VWS V14.01,2013-01-24 03:55:00,
2013-01-23 22:58:00,61.4,56.5,30.29,NNW,341,1.0,2.0,84,0.00,,OVC,0.00,0.00,VWS V14.01,2013-01-24 03:58:00,
2013-01-23 23:00:00,61.4,56.5,30.28,NNW,341,0.0,2.0,84,0.00,,OVC050,0.00,0.00,VWS V14.01,2013-01-24 04:00:00,
2013-01-23 23:03:00,61.3,56.4,30.28,NNW,341,1.0,1.0,84,0.00,,OVC,0.00,0.00,VWS V14.01,2013-01-24 04:03:00,
2013-01-23 23:05:00,61.2,56.3,30.28,NNW,341,2.0,2.0,84,0.00,,OVC050,0.00,0.00,VWS V14.01,2013-01-24 04:05:00,
2013-01-23 23:08:00,61.1,56.6,30.28,NNW,341,0.0,2.0,85,0.00,,OVC,0.00,0.00,VWS V14.01,2013-01-24 04:08:00,
2013-01-23 23:10:00,61.1,56.6,30.28,NNW,341,0.0,0.0,85,0.00,,OVC050,0.00,0.00,VWS V14.01,2013-01-24 04:10:00,
2013-01-23 23:13:00,61.0,56.5,30.28,NNW,348,3.0,4.0,85,0.00,,OVC,0.00,0.00,VWS V14.01,2013-01-24 04:13:00,
2013-01-23 23:15:00,61.0,56.5,30.28,NNW,348,2.0,4.0,85,0.00,,OVC050,0.00,0.00,VWS V14.01,2013-01-24 04:15:00,
2013-01-23 23:18:00,60.9,56.4,30.28,NNW,348,1.0,3.0,85,0.00,,OVC,0.00,0.00,VWS V14.01,2013-01-24 04:18:00,
2013-01-23 23:20:00,60.8,56.3,30.28,NNW,348,2.0,3.0,85,0.00,,OVC050,0.00,0.00,VWS V14.01,2013-01-24 04:20:00,
2013-01-23 23:23:00,60.7,56.2,30.28,NNW,348,1.0,3.0,85,0.00,,OVC,0.00,0.00,VWS V14.01,2013-01-24 04:23:00,
2013-01-23 23:25:00,60.7,56.2,30.28,NNW,348,0.0,2.0,85,0.00,,OVC050,0.00,0.00,VWS V14.01,2013-01-24 04:25:00,
2013-01-23 23:28:00,60.6,56.1,30.28,NNW,348,1.0,3.0,85,0.00,,OVC,0.00,0.00,VWS V14.01,2013-01-24 04:28:00,
2013-01-23 23:30:00,60.6,56.1,30.28,NNW,348,1.0,2.0,85,0.00,,OVC050,0.00,0.00,VWS V14.01,2013-01-24 04:30:00,
2013-01-23 23:33:00,60.5,56.0,30.28,NNW,348,1.0,2.0,85,0.00,,OVC,0.00,0.00,VWS V14.01,2013-01-24 04:33:00,
2013-01-23 23:35:00,60.4,55.9,30.28,NNW,348,2.0,2.0,85,0.00,,OVC050,0.00,0.00,VWS V14.01,2013-01-24 04:35:00,
2013-01-23 23:38:00,60.3,56.1,30.28,NNW,348,1.0,2.0,86,0.00,,OVC,0.00,0.00,VWS V14.01,2013-01-24 04:38:00,
2013-01-23 23:40:00,60.2,56.0,30.28,NNW,348,1.0,3.0,86,0.00,,OVC050,0.00,0.00,VWS V14.01,2013-01-24 04:40:00,
2013-01-23 23:43:00,60.1,55.9,30.27,NNW,348,2.0,2.0,86,0.00,,OVC,0.00,0.00,VWS V14.01,2013-01-24 04:43:00,
2013-01-23 23:45:00,60.1,55.9,30.27,NNW,348,1.0,2.0,86,0.00,,OVC050,0.00,0.00,VWS V14.01,2013-01-24 04:45:00,
2013-01-23 23:48:00,59.9,55.7,30.27,NNW,348,0.0,2.0,86,0.00,,OVC,0.00,0.00,VWS V14.01,2013-01-24 04:48:00,
2013-01-23 23:50:00,59.9,55.7,30.27,NNW,348,0.0,2.0,86,0.00,,OVC050,0.00,0.00,VWS V14.01,2013-01-24 04:50:00,
2013-01-23 23:53:00,59.8,55.6,30.27,NNW,348,1.0,2.0,86,0.00,,OVC,0.00,0.00,VWS V14.01,2013-01-24 04:53:00,
2013-01-23 23:55:00,59.7,55.5,30.27,NNW,348,1.0,2.0,86,0.00,,OVC050,0.00,0.00,VWS V14.01,2013-01-24 04:55:00,
2013-01-23 23:58:00,59.6,55.4,30.27,NNW,348,1.0,2.0,86,0.00,,OVC,0.00,0.00,VWS V14.01,2013-01-24 04:58:00,